Observation data for Lake McClellan 2NW on 11/15/2019      Previous  Date       Current Mesonet Observations  Soil Data  Daily Summary Page  Observations in Plain Language
KMC5 150600Z 22007KT 02/M03 A3041 RMK A01 T00201027  RH  071%=      5-min Rain = 0
KMC5 150601Z 22006KT 02/M03 A3041 RMK A01 T00201027  RH  071%=      5-min Rain = 0
KMC5 150602Z 23006KT 02/M03 A3041 RMK A01 T00191028  RH  071%=      5-min Rain = 0
KMC5 150603Z 22006KT 02/M03 A3041 RMK A01 T00181027  RH  072%=      5-min Rain = 0
KMC5 150604Z 22006KT 02/M03 A3041 RMK A01 T00191027  RH  072%=      5-min Rain = 0
KMC5 150605Z 22006KT 02/M03 A3041 RMK A01 T00201026  RH  072%=      5-min Rain = 0
KMC5 150606Z 22006KT 02/M03 A3041 RMK A01 T00201026  RH  071%=      5-min Rain = 0
KMC5 150607Z 22006KT 02/M03 A3041 RMK A01 T00211026  RH  071%=      5-min Rain = 0
KMC5 150608Z 22007KT 02/M03 A3041 RMK A01 T00201027  RH  071%=      5-min Rain = 0
KMC5 150609Z 22006KT 02/M03 A3041 RMK A01 T00191027  RH  071%=      5-min Rain = 0
KMC5 150610Z 22007KT 02/M03 A3041 RMK A01 T00191027  RH  071%=      5-min Rain = 0
KMC5 150611Z 22007KT 02/M03 A3041 RMK A01 T00191026  RH  072%=      5-min Rain = 0
KMC5 150612Z 22007KT 02/M03 A3041 RMK A01 T00191026  RH  072%=      5-min Rain = 0
KMC5 150613Z 22007KT 02/M03 A3041 RMK A01 T00211025  RH  072%=      5-min Rain = 0
KMC5 150614Z 22007KT 02/M02 A3041 RMK A01 T00221024  RH  071%=      5-min Rain = 0
KMC5 150615Z 22007KT 02/M03 A3041 RMK A01 T00231025  RH  071%=      5-min Rain = 0
KMC5 150616Z 22007KT 02/M03 A3041 RMK A01 T00231025  RH  071%=      5-min Rain = 0
KMC5 150617Z 22007KT 02/M02 A3041 RMK A01 T00241024  RH  070%=      5-min Rain = 0
KMC5 150618Z 22007KT 03/M03 A3041 RMK A01 T00251025  RH  070%=      5-min Rain = 0
KMC5 150619Z 22007KT 03/M03 A3041 RMK A01 T00251025  RH  070%=      5-min Rain = 0
KMC5 150620Z 22007KT 03/M02 A3041 RMK A01 T00251024  RH  070%=      5-min Rain = 0
KMC5 150621Z 22007KT 03/M03 A3041 RMK A01 T00251025  RH  070%=      5-min Rain = 0
KMC5 150622Z 22008KT 03/M03 A3041 RMK A01 T00251025  RH  070%=      5-min Rain = 0
KMC5 150623Z 22007KT 03/M02 A3041 RMK A01 T00261024  RH  070%=      5-min Rain = 0
KMC5 150624Z 22007KT 03/M02 A3041 RMK A01 T00261024  RH  069%=      5-min Rain = 0
KMC5 150625Z 22007KT 03/M03 A3041 RMK A01 T00261025  RH  069%=      5-min Rain = 0
KMC5 150626Z 22007KT 02/M03 A3041 RMK A01 T00241027  RH  069%=      5-min Rain = 0
KMC5 150627Z 22006KT 02/M03 A3041 RMK A01 T00221027  RH  070%=      5-min Rain = 0
KMC5 150628Z 22006KT 02/M03 A3041 RMK A01 T00221026  RH  071%=      5-min Rain = 0
KMC5 150629Z 22007KT 02/M03 A3041 RMK A01 T00211026  RH  071%=      5-min Rain = 0
KMC5 150630Z 22007KT 02/M03 A3041 RMK A01 T00201027  RH  071%=      5-min Rain = 0
KMC5 150631Z 22007KT 02/M03 A3041 RMK A01 T00201027  RH  071%=      5-min Rain = 0
KMC5 150632Z 22007KT 02/M03 A3041 RMK A01 T00201026  RH  071%=      5-min Rain = 0
KMC5 150633Z 23007KT 02/M03 A3041 RMK A01 T00201026  RH  071%=      5-min Rain = 0
KMC5 150634Z 22007KT 02/M03 A3041 RMK A01 T00201026  RH  071%=      5-min Rain = 0
KMC5 150635Z 23007KT 02/M03 A3041 RMK A01 T00211026  RH  071%=      5-min Rain = 0
KMC5 150636Z 23006KT 02/M03 A3041 RMK A01 T00211025  RH  071%=      5-min Rain = 0
KMC5 150637Z 22006KT 02/M03 A3041 RMK A01 T00211026  RH  071%=      5-min Rain = 0
KMC5 150638Z 22006KT 02/M03 A3041 RMK A01 T00221026  RH  071%=      5-min Rain = 0
KMC5 150639Z 22006KT 02/M03 A3041 RMK A01 T00221026  RH  071%=      5-min Rain = 0
KMC5 150640Z 23006KT 02/M03 A3041 RMK A01 T00221026  RH  071%=      5-min Rain = 0
KMC5 150641Z 22006KT 02/M03 A3041 RMK A01 T00221026  RH  071%=      5-min Rain = 0
KMC5 150642Z 22006KT 02/M03 A3041 RMK A01 T00221026  RH  071%=      5-min Rain = 0
KMC5 150643Z 22006KT 02/M03 A3041 RMK A01 T00221026  RH  071%=      5-min Rain = 0
KMC5 150644Z 22006KT 02/M03 A3041 RMK A01 T00221026  RH  071%=      5-min Rain = 0
KMC5 150645Z 22007KT 02/M03 A3041 RMK A01 T00211026  RH  071%=      5-min Rain = 0
KMC5 150646Z 22007KT 02/M03 A3041 RMK A01 T00211026  RH  071%=      5-min Rain = 0
KMC5 150647Z 22007KT 02/M03 A3041 RMK A01 T00211025  RH  071%=      5-min Rain = 0
KMC5 150648Z 22006KT 02/M03 A3041 RMK A01 T00211026  RH  071%=      5-min Rain = 0
KMC5 150649Z 23006KT 02/M03 A3041 RMK A01 T00181028  RH  072%=      5-min Rain = 0
KMC5 150650Z 23005KT 02/M03 A3041 RMK A01 T00171027  RH  072%=      5-min Rain = 0
KMC5 150651Z 22006KT 02/M03 A3041 RMK A01 T00171026  RH  073%=      5-min Rain = 0
KMC5 150652Z 22006KT 02/M03 A3041 RMK A01 T00171026  RH  073%=      5-min Rain = 0
KMC5 150653Z 22006KT 02/M03 A3041 RMK A01 T00181025  RH  073%=      5-min Rain = 0
KMC5 150654Z 22006KT 02/M03 A3041 RMK A01 T00181026  RH  073%=      5-min Rain = 0
KMC5 150655Z 22007KT 02/M03 A3041 RMK A01 T00181026  RH  073%=      5-min Rain = 0
KMC5 150656Z 22007KT 02/M03 A3041 RMK A01 T00181025  RH  073%=      5-min Rain = 0
KMC5 150657Z 22007KT 02/M03 A3041 RMK A01 T00181025  RH  073%=      5-min Rain = 0
KMC5 150658Z 22007KT 02/M03 A3041 RMK A01 T00181026  RH  073%=      5-min Rain = 0
KMC5 150659Z 22006KT 02/M03 A304 RMK A01 T00171027  RH  073%=      5-min Rain = 0
KMC5 150700Z 23006KT 02/M03 A304 RMK A01 T00171026  RH  073%=      5-min Rain = 0
KMC5 150701Z 22006KT 02/M03 A304 RMK A01 T00171026  RH  073%=      5-min Rain = 0
KMC5 150702Z 22006KT 02/M03 A304 RMK A01 T00171027  RH  073%=      5-min Rain = 0
KMC5 150703Z 22006KT 02/M03 A304 RMK A01 T00181026  RH  073%=      5-min Rain = 0
KMC5 150704Z 22006KT 02/M03 A304 RMK A01 T00171026  RH  073%=      5-min Rain = 0
KMC5 150705Z 22007KT 02/M03 A304 RMK A01 T00171026  RH  073%=      5-min Rain = 0
KMC5 150706Z 22007KT 02/M03 A304 RMK A01 T00181025  RH  073%=      5-min Rain = 0
KMC5 150707Z 23007KT 02/M03 A304 RMK A01 T00181025  RH  073%=      5-min Rain = 0
KMC5 150708Z 23006KT 02/M03 A304 RMK A01 T00181026  RH  072%=      5-min Rain = 0
KMC5 150709Z 23006KT 02/M03 A304 RMK A01 T00161027  RH  073%=      5-min Rain = 0
KMC5 150710Z 23006KT 02/M03 A304 RMK A01 T00151029  RH  073%=      5-min Rain = 0
KMC5 150711Z 24006KT 01/M03 A304 RMK A01 T00131029  RH  074%=      5-min Rain = 0
KMC5 150712Z 24006KT 01/M03 A304 RMK A01 T00121028  RH  074%=      5-min Rain = 0
KMC5 150713Z 23005KT 01/M03 A304 RMK A01 T00111028  RH  075%=      5-min Rain = 0
KMC5 150714Z 24005KT 01/M03 A304 RMK A01 T00111028  RH  075%=      5-min Rain = 0
KMC5 150715Z 24005KT 01/M03 A304 RMK A01 T00121027  RH  075%=      5-min Rain = 0
KMC5 150716Z 24005KT 01/M03 A304 RMK A01 T00131027  RH  075%=      5-min Rain = 0
KMC5 150717Z 24005KT 01/M03 A304 RMK A01 T00131027  RH  074%=      5-min Rain = 0
KMC5 150718Z 24005KT 01/M03 A304 RMK A01 T00131027  RH  074%=      5-min Rain = 0
KMC5 150719Z 24005KT 01/M03 A304 RMK A01 T00131027  RH  074%=      5-min Rain = 0
KMC5 150720Z 25005KT 01/M03 A304 RMK A01 T00131027  RH  074%=      5-min Rain = 0
KMC5 150721Z 25006KT 01/M03 A304 RMK A01 T00131027  RH  075%=      5-min Rain = 0
KMC5 150722Z 25006KT 01/M03 A304 RMK A01 T00131028  RH  074%=      5-min Rain = 0
KMC5 150723Z 25006KT 01/M03 A304 RMK A01 T00121029  RH  074%=      5-min Rain = 0
KMC5 150724Z 25006KT 01/M03 A304 RMK A01 T00111028  RH  075%=      5-min Rain = 0
KMC5 150725Z 25006KT 01/M03 A304 RMK A01 T00111028  RH  075%=      5-min Rain = 0
KMC5 150726Z 24005KT 01/M03 A304 RMK A01 T00111027  RH  076%=      5-min Rain = 0
KMC5 150727Z 25005KT 01/M03 A304 RMK A01 T00121026  RH  076%=      5-min Rain = 0
KMC5 150728Z 24005KT 01/M03 A304 RMK A01 T00131026  RH  075%=      5-min Rain = 0
KMC5 150729Z 25005KT 01/M03 A304 RMK A01 T00131027  RH  075%=      5-min Rain = 0
KMC5 150730Z 24005KT 01/M03 A304 RMK A01 T00131027  RH  075%=      5-min Rain = 0
KMC5 150731Z 25006KT 01/M03 A304 RMK A01 T00121028  RH  075%=      5-min Rain = 0
KMC5 150732Z 25006KT 01/M03 A304 RMK A01 T00111028  RH  076%=      5-min Rain = 0
KMC5 150733Z 25005KT 01/M03 A304 RMK A01 T00121027  RH  076%=      5-min Rain = 0
KMC5 150734Z 24006KT 01/M03 A304 RMK A01 T00111029  RH  075%=      5-min Rain = 0
KMC5 150735Z 25006KT 01/M03 A304 RMK A01 T00091029  RH  076%=      5-min Rain = 0
KMC5 150736Z 24006KT 01/M03 A304 RMK A01 T00091028  RH  077%=      5-min Rain = 0
KMC5 150737Z 24006KT 01/M03 A304 RMK A01 T00081027  RH  077%=      5-min Rain = 0
KMC5 150738Z 24006KT 01/M03 A304 RMK A01 T00081027  RH  077%=      5-min Rain = 0
KMC5 150739Z 24006KT 01/M03 A304 RMK A01 T00091027  RH  077%=      5-min Rain = 0
KMC5 150740Z 24005KT 01/M03 A304 RMK A01 T00091027  RH  077%=      5-min Rain = 0
KMC5 150741Z 24006KT 01/M03 A304 RMK A01 T00081027  RH  077%=      5-min Rain = 0
KMC5 150742Z 24006KT 01/M03 A304 RMK A01 T00071028  RH  077%=      5-min Rain = 0
KMC5 150743Z 24006KT 01/M03 A304 RMK A01 T00071028  RH  078%=      5-min Rain = 0
KMC5 150744Z 23005KT 01/M03 A304 RMK A01 T00061028  RH  078%=      5-min Rain = 0
KMC5 150745Z 23005KT 01/M03 A304 RMK A01 T00051027  RH  079%=      5-min Rain = 0
KMC5 150746Z 24005KT 01/M03 A304 RMK A01 T00061026  RH  079%=      5-min Rain = 0
KMC5 150747Z 24006KT 01/M02 A304 RMK A01 T00081024  RH  079%=      5-min Rain = 0
KMC5 150748Z 24005KT 01/M03 A304 RMK A01 T00091025  RH  078%=      5-min Rain = 0
KMC5 150749Z 24006KT 01/M03 A3039 RMK A01 T00091026  RH  078%=      5-min Rain = 0
KMC5 150750Z 24006KT 01/M03 A3039 RMK A01 T00081026  RH  078%=      5-min Rain = 0
KMC5 150751Z 24005KT 01/M03 A3039 RMK A01 T00081026  RH  078%=      5-min Rain = 0
KMC5 150752Z 24006KT 01/M03 A3039 RMK A01 T00091026  RH  078%=      5-min Rain = 0
KMC5 150753Z 25006KT 01/M03 A3039 RMK A01 T00081026  RH  078%=      5-min Rain = 0
KMC5 150754Z 25005KT 01/M03 A3039 RMK A01 T00081026  RH  078%=      5-min Rain = 0
KMC5 150755Z 25006KT 01/M03 A3039 RMK A01 T00081026  RH  078%=      5-min Rain = 0
KMC5 150756Z 25006KT 01/M03 A3039 RMK A01 T00081026  RH  078%=      5-min Rain = 0
KMC5 150757Z 25006KT 01/M03 A3039 RMK A01 T00091026  RH  078%=      5-min Rain = 0
KMC5 150758Z 25006KT 01/M03 A3039 RMK A01 T00101026  RH  077%=      5-min Rain = 0
KMC5 150759Z 25006KT 01/M03 A3039 RMK A01 T00101026  RH  077%=      5-min Rain = 0
KMC5 150800Z 25006KT 01/M03 A3039 RMK A01 T00111026  RH  077%=      5-min Rain = 0
KMC5 150801Z 25005KT 01/M03 A3039 RMK A01 T00121025  RH  077%=      5-min Rain = 0
KMC5 150802Z 24005KT 01/M03 A3039 RMK A01 T00121026  RH  076%=      5-min Rain = 0
KMC5 150803Z 25006KT 01/M03 A3039 RMK A01 T00121026  RH  076%=      5-min Rain = 0
KMC5 150804Z 25006KT 01/M03 A3039 RMK A01 T00121026  RH  076%=      5-min Rain = 0
KMC5 150805Z 25006KT 01/M03 A3039 RMK A01 T00111027  RH  076%=      5-min Rain = 0
KMC5 150806Z 25007KT 01/M03 A3039 RMK A01 T00101027  RH  076%=      5-min Rain = 0
KMC5 150807Z 25007KT 01/M02 A3039 RMK A01 T00111024  RH  077%=      5-min Rain = 0
KMC5 150808Z 25007KT 01/M02 A3039 RMK A01 T00131024  RH  077%=      5-min Rain = 0
KMC5 150809Z 25006KT 01/M02 A3039 RMK A01 T00141024  RH  076%=      5-min Rain = 0
KMC5 150810Z 24007KT 01/M03 A3039 RMK A01 T00131025  RH  076%=      5-min Rain = 0
KMC5 150811Z 24006KT 01/M03 A3039 RMK A01 T00121025  RH  076%=      5-min Rain = 0
KMC5 150812Z 24006KT 01/M03 A3039 RMK A01 T00121025  RH  076%=      5-min Rain = 0
KMC5 150813Z 25006KT 01/M03 A3039 RMK A01 T00121026  RH  076%=      5-min Rain = 0
KMC5 150814Z 24006KT 01/M03 A3039 RMK A01 T00111026  RH  076%=      5-min Rain = 0
KMC5 150815Z 25006KT 01/M03 A3039 RMK A01 T00111026  RH  076%=      5-min Rain = 0
KMC5 150816Z 25006KT 01/M03 A3039 RMK A01 T00101026  RH  077%=      5-min Rain = 0
KMC5 150817Z 25007KT 01/M03 A3039 RMK A01 T00101026  RH  077%=      5-min Rain = 0
KMC5 150818Z 25007KT 01/M03 A3039 RMK A01 T00101026  RH  077%=      5-min Rain = 0
KMC5 150819Z 25007KT 01/M03 A3039 RMK A01 T00101026  RH  077%=      5-min Rain = 0
KMC5 150820Z 25007KT 01/M03 A3039 RMK A01 T00101026  RH  077%=      5-min Rain = 0
KMC5 150821Z 25007KT 01/M03 A3039 RMK A01 T00111026  RH  077%=      5-min Rain = 0
KMC5 150822Z 25007KT 01/M03 A3039 RMK A01 T00121025  RH  077%=      5-min Rain = 0
KMC5 150823Z 25007KT 01/M03 A3039 RMK A01 T00131025  RH  076%=      5-min Rain = 0
KMC5 150824Z 24006KT 01/M03 A3039 RMK A01 T00141025  RH  075%=      5-min Rain = 0
KMC5 150825Z 23006KT 01/M03 A3039 RMK A01 T00141026  RH  075%=      5-min Rain = 0
KMC5 150826Z 24006KT 01/M03 A3039 RMK A01 T00121027  RH  075%=      5-min Rain = 0
KMC5 150827Z 23006KT 01/M03 A3039 RMK A01 T00121026  RH  076%=      5-min Rain = 0
KMC5 150828Z 23006KT 01/M03 A3039 RMK A01 T00111027  RH  076%=      5-min Rain = 0
KMC5 150829Z 23006KT 01/M03 A3039 RMK A01 T00101027  RH  076%=      5-min Rain = 0
KMC5 150830Z 24006KT 01/M03 A3039 RMK A01 T00101026  RH  077%=      5-min Rain = 0
KMC5 150831Z 24006KT 01/M03 A3039 RMK A01 T00101027  RH  076%=      5-min Rain = 0
KMC5 150832Z 25006KT 01/M03 A3039 RMK A01 T00071029  RH  076%=      5-min Rain = 0
KMC5 150833Z 24006KT 01/M03 A3039 RMK A01 T00051028  RH  078%=      5-min Rain = 0
KMC5 150834Z 25007KT 01/M03 A3038 RMK A01 T00071026  RH  079%=      5-min Rain = 0
KMC5 150835Z 25006KT 01/M03 A3038 RMK A01 T00081026  RH  078%=      5-min Rain = 0
KMC5 150836Z 25006KT 01/M03 A3038 RMK A01 T00081027  RH  078%=      5-min Rain = 0
KMC5 150837Z 25006KT 01/M03 A3038 RMK A01 T00071027  RH  078%=      5-min Rain = 0
KMC5 150838Z 25007KT 01/M03 A3038 RMK A01 T00071027  RH  078%=      5-min Rain = 0
KMC5 150839Z 25007KT 01/M03 A3038 RMK A01 T00061028  RH  078%=      5-min Rain = 0
KMC5 150840Z 25006KT 01/M03 A3038 RMK A01 T00051027  RH  079%=      5-min Rain = 0
KMC5 150841Z 24006KT 00/M03 A3038 RMK A01 T00041027  RH  079%=      5-min Rain = 0
KMC5 150842Z 24007KT 00/M03 A3038 RMK A01 T00041027  RH  080%=      5-min Rain = 0
KMC5 150843Z 24007KT 01/M03 A3038 RMK A01 T00051026  RH  080%=      5-min Rain = 0
KMC5 150844Z 24007KT 01/M03 A3038 RMK A01 T00061026  RH  079%=      5-min Rain = 0
KMC5 150845Z 24007KT 01/M03 A3038 RMK A01 T00081026  RH  079%=      5-min Rain = 0
KMC5 150846Z 25008KT 01/M03 A3038 RMK A01 T00091025  RH  078%=      5-min Rain = 0
KMC5 150847Z 25008KT 01/M02 A3038 RMK A01 T00101024  RH  078%=      5-min Rain = 0
KMC5 150848Z 25007KT 01/M02 A3038 RMK A01 T00121024  RH  077%=      5-min Rain = 0
KMC5 150849Z 25007KT 01/M02 A3038 RMK A01 T00131024  RH  076%=      5-min Rain = 0
KMC5 150850Z 25008KT 01/M03 A3038 RMK A01 T00141025  RH  075%=      5-min Rain = 0
KMC5 150851Z 25009KT 01/M03 A3038 RMK A01 T00141025  RH  076%=      5-min Rain = 0
KMC5 150852Z 25009KT 02/M02 A3038 RMK A01 T00151024  RH  075%=      5-min Rain = 0
KMC5 150853Z 25008KT 02/M02 A3038 RMK A01 T00161024  RH  075%=      5-min Rain = 0
KMC5 150854Z 25008KT 02/M02 A3038 RMK A01 T00161024  RH  074%=      5-min Rain = 0
KMC5 150855Z 25008KT 02/M03 A3038 RMK A01 T00151025  RH  075%=      5-min Rain = 0
KMC5 150856Z 25008KT 01/M03 A3038 RMK A01 T00141025  RH  075%=      5-min Rain = 0
KMC5 150857Z 25008KT 01/M03 A3038 RMK A01 T00131025  RH  075%=      5-min Rain = 0
KMC5 150858Z 25008KT 01/M03 A3038 RMK A01 T00121026  RH  076%=      5-min Rain = 0
KMC5 150859Z 25008KT 01/M03 A3038 RMK A01 T00101027  RH  076%=      5-min Rain = 0
KMC5 150900Z 24008KT 01/M03 A3038 RMK A01 T00101026  RH  077%=      5-min Rain = 0
KMC5 150901Z 25007KT 01/M03 A3038 RMK A01 T00101026  RH  077%=      5-min Rain = 0
KMC5 150902Z 25008KT 01/M03 A3038 RMK A01 T00101026  RH  077%=      5-min Rain = 0
KMC5 150903Z 24008KT 01/M03 A3038 RMK A01 T00091027  RH  077%=      5-min Rain = 0
KMC5 150904Z 25008KT 01/M03 A3037 RMK A01 T00091027  RH  077%=      5-min Rain = 0
KMC5 150905Z 25008KT 01/M03 A3037 RMK A01 T00081027  RH  077%=      5-min Rain = 0
KMC5 150906Z 25008KT 01/M03 A3037 RMK A01 T00071027  RH  078%=      5-min Rain = 0
KMC5 150907Z 25008KT 01/M03 A3037 RMK A01 T00081026  RH  078%=      5-min Rain = 0
KMC5 150908Z 25008KT 01/M03 A3037 RMK A01 T00091026  RH  077%=      5-min Rain = 0
KMC5 150909Z 25008KT 01/M03 A3037 RMK A01 T00101026  RH  077%=      5-min Rain = 0
KMC5 150910Z 24007KT 01/M03 A3037 RMK A01 T00101027  RH  077%=      5-min Rain = 0
KMC5 150911Z 25008KT 01/M03 A3037 RMK A01 T00091027  RH  077%=      5-min Rain = 0
KMC5 150912Z 24007KT 01/M03 A3037 RMK A01 T00081027  RH  077%=      5-min Rain = 0
KMC5 150913Z 25008KT 01/M03 A3037 RMK A01 T00081026  RH  078%=      5-min Rain = 0
KMC5 150914Z 25008KT 01/M03 A3037 RMK A01 T00101025  RH  077%=      5-min Rain = 0
KMC5 150915Z 25008KT 01/M03 A3037 RMK A01 T00101026  RH  077%=      5-min Rain = 0
KMC5 150916Z 25007KT 01/M03 A3037 RMK A01 T00111026  RH  077%=      5-min Rain = 0
KMC5 150917Z 24007KT 01/M03 A3037 RMK A01 T00111026  RH  076%=      5-min Rain = 0
KMC5 150918Z 25007KT 01/M03 A3037 RMK A01 T00101027  RH  076%=      5-min Rain = 0
KMC5 150919Z 24007KT 01/M03 A3037 RMK A01 T00091027  RH  077%=      5-min Rain = 0
KMC5 150920Z 24007KT 01/M03 A3037 RMK A01 T00081027  RH  077%=      5-min Rain = 0
KMC5 150921Z 25007KT 01/M03 A3037 RMK A01 T00071028  RH  077%=      5-min Rain = 0
KMC5 150922Z 25008KT 01/M03 A3037 RMK A01 T00061028  RH  078%=      5-min Rain = 0
KMC5 150923Z 24008KT 01/M03 A3037 RMK A01 T00061028  RH  078%=      5-min Rain = 0
KMC5 150924Z 24007KT 01/M03 A3037 RMK A01 T00051028  RH  079%=      5-min Rain = 0
KMC5 150925Z 25008KT 01/M03 A3037 RMK A01 T00051028  RH  079%=      5-min Rain = 0
KMC5 150926Z 25008KT 01/M03 A3037 RMK A01 T00051028  RH  079%=      5-min Rain = 0
KMC5 150927Z 24008KT 01/M03 A3037 RMK A01 T00051028  RH  079%=      5-min Rain = 0
KMC5 150928Z 24008KT 00/M03 A3037 RMK A01 T00041028  RH  079%=      5-min Rain = 0
KMC5 150929Z 24008KT 00/M03 A3037 RMK A01 T00041028  RH  079%=      5-min Rain = 0
KMC5 150930Z 24008KT 00/M03 A3037 RMK A01 T00031028  RH  079%=      5-min Rain = 0
KMC5 150931Z 24008KT 00/M03 A3037 RMK A01 T00031029  RH  079%=      5-min Rain = 0
KMC5 150932Z 24008KT 00/M03 A3037 RMK A01 T00021029  RH  080%=      5-min Rain = 0
KMC5 150933Z 24008KT 00/M03 A3037 RMK A01 T00031027  RH  080%=      5-min Rain = 0
KMC5 150934Z 25008KT 01/M03 A3037 RMK A01 T00061026  RH  079%=      5-min Rain = 0
KMC5 150935Z 24008KT 01/M03 A3037 RMK A01 T00071026  RH  079%=      5-min Rain = 0
KMC5 150936Z 25008KT 01/M03 A3037 RMK A01 T00081026  RH  078%=      5-min Rain = 0
KMC5 150937Z 24007KT 01/M03 A3037 RMK A01 T00091026  RH  077%=      5-min Rain = 0
KMC5 150938Z 25007KT 01/M03 A3037 RMK A01 T00081027  RH  077%=      5-min Rain = 0
KMC5 150939Z 25008KT 01/M03 A3036 RMK A01 T00081027  RH  078%=      5-min Rain = 0
KMC5 150940Z 25008KT 01/M03 A3036 RMK A01 T00081027  RH  078%=      5-min Rain = 0
KMC5 150941Z 25008KT 01/M03 A3037 RMK A01 T00081026  RH  078%=      5-min Rain = 0
KMC5 150942Z 25008KT 01/M03 A3036 RMK A01 T00081026  RH  078%=      5-min Rain = 0
KMC5 150943Z 25007KT 01/M03 A3036 RMK A01 T00081027  RH  078%=      5-min Rain = 0
KMC5 150944Z 25007KT 01/M03 A3036 RMK A01 T00081027  RH  078%=      5-min Rain = 0
KMC5 150945Z 25007KT 01/M03 A3036 RMK A01 T00061028  RH  078%=      5-min Rain = 0
KMC5 150946Z 25007KT 01/M03 A3036 RMK A01 T00051028  RH  078%=      5-min Rain = 0
KMC5 150947Z 25008KT 00/M03 A3036 RMK A01 T00041028  RH  079%=      5-min Rain = 0
KMC5 150948Z 25007KT 00/M03 A3036 RMK A01 T00041028  RH  079%=      5-min Rain = 0
KMC5 150949Z 25007KT 00/M03 A3036 RMK A01 T00031028  RH  079%=      5-min Rain = 0
KMC5 150950Z 25007KT 00/M03 A3036 RMK A01 T00041027  RH  080%=      5-min Rain = 0
KMC5 150951Z 25008KT 01/M03 A3036 RMK A01 T00051027  RH  079%=      5-min Rain = 0
KMC5 150952Z 25008KT 01/M03 A3036 RMK A01 T00051028  RH  079%=      5-min Rain = 0
KMC5 150953Z 25008KT 01/M03 A3036 RMK A01 T00051027  RH  079%=      5-min Rain = 0
KMC5 150954Z 25007KT 01/M03 A3036 RMK A01 T00051028  RH  079%=      5-min Rain = 0
KMC5 150955Z 25008KT 00/M03 A3036 RMK A01 T00041028  RH  079%=      5-min Rain = 0
KMC5 150956Z 25008KT 00/M03 A3036 RMK A01 T00041028  RH  079%=      5-min Rain = 0
KMC5 150957Z 25008KT 00/M03 A3036 RMK A01 T00041028  RH  079%=      5-min Rain = 0
KMC5 150958Z 25008KT 01/M03 A3036 RMK A01 T00051027  RH  079%=      5-min Rain = 0
KMC5 150959Z 25008KT 00/M03 A3036 RMK A01 T00041028  RH  079%=      5-min Rain = 0
KMC5 151000Z 25008KT 00/M03 A3036 RMK A01 T00041028  RH  079%=      5-min Rain = 0
KMC5 151001Z 25007KT 00/M03 A3036 RMK A01 T00041028  RH  079%=      5-min Rain = 0
KMC5 151002Z 25007KT 00/M03 A3036 RMK A01 T00041028  RH  079%=      5-min Rain = 0
KMC5 151003Z 24006KT 01/M03 A3036 RMK A01 T00051028  RH  079%=      5-min Rain = 0
KMC5 151004Z 24006KT 01/M03 A3036 RMK A01 T00061028  RH  078%=      5-min Rain = 0
KMC5 151005Z 25006KT 01/M03 A3036 RMK A01 T00061028  RH  078%=      5-min Rain = 0
KMC5 151006Z 24006KT 01/M03 A3036 RMK A01 T00061027  RH  078%=      5-min Rain = 0
KMC5 151007Z 25007KT 01/M03 A3036 RMK A01 T00061028  RH  078%=      5-min Rain = 0
KMC5 151008Z 24007KT 01/M03 A3036 RMK A01 T00051028  RH  078%=      5-min Rain = 0
KMC5 151009Z 25007KT 01/M03 A3036 RMK A01 T00051028  RH  079%=      5-min Rain = 0
KMC5 151010Z 25007KT 00/M03 A3036 RMK A01 T00041028  RH  079%=      5-min Rain = 0
KMC5 151011Z 24009KT 00/M03 A3036 RMK A01 T00041028  RH  079%=      5-min Rain = 0
KMC5 151012Z 24008KT 00/M03 A3036 RMK A01 T00031028  RH  079%=      5-min Rain = 0
KMC5 151013Z 25007KT 00/M03 A3036 RMK A01 T00031028  RH  079%=      5-min Rain = 0
KMC5 151014Z 24007KT 00/M03 A3036 RMK A01 T00031029  RH  079%=      5-min Rain = 0
KMC5 151015Z 24007KT 00/M03 A3036 RMK A01 T00031028  RH  079%=      5-min Rain = 0
KMC5 151016Z 24007KT 00/M03 A3036 RMK A01 T00031028  RH  080%=      5-min Rain = 0
KMC5 151017Z 24008KT 00/M03 A3036 RMK A01 T00031028  RH  080%=      5-min Rain = 0
KMC5 151018Z 24008KT 00/M03 A3036 RMK A01 T00031028  RH  080%=      5-min Rain = 0
KMC5 151019Z 25008KT 00/M03 A3036 RMK A01 T00031028  RH  079%=      5-min Rain = 0
KMC5 151020Z 25009KT 00/M03 A3036 RMK A01 T00031028  RH  080%=      5-min Rain = 0
KMC5 151021Z 25008KT 00/M03 A3036 RMK A01 T00021028  RH  080%=      5-min Rain = 0
KMC5 151022Z 25008KT 00/M03 A3036 RMK A01 T00021029  RH  080%=      5-min Rain = 0
KMC5 151023Z 24007KT 00/M03 A3036 RMK A01 T00021029  RH  080%=      5-min Rain = 0
KMC5 151024Z 25007KT 00/M03 A3036 RMK A01 T00021029  RH  080%=      5-min Rain = 0
KMC5 151025Z 24007KT 00/M03 A3036 RMK A01 T00021029  RH  080%=      5-min Rain = 0
KMC5 151026Z 24008KT 00/M03 A3036 RMK A01 T00021028  RH  080%=      5-min Rain = 0
KMC5 151027Z 24008KT 00/M03 A3036 RMK A01 T00021028  RH  080%=      5-min Rain = 0
KMC5 151028Z 25007KT 00/M03 A3036 RMK A01 T00021028  RH  080%=      5-min Rain = 0
KMC5 151029Z 25007KT 00/M03 A3036 RMK A01 T00021028  RH  080%=      5-min Rain = 0
KMC5 151030Z 25007KT 00/M03 A3036 RMK A01 T00021028  RH  080%=      5-min Rain = 0
KMC5 151031Z 25007KT 00/M03 A3036 RMK A01 T00021029  RH  080%=      5-min Rain = 0
KMC5 151032Z 25007KT 00/M03 A3036 RMK A01 T00011029  RH  080%=      5-min Rain = 0
KMC5 151033Z 25007KT 00/M03 A3036 RMK A01 T00011029  RH  081%=      5-min Rain = 0
KMC5 151034Z 25007KT 00/M03 A3036 RMK A01 T00011029  RH  081%=      5-min Rain = 0
KMC5 151035Z 25007KT 00/M03 A3036 RMK A01 T00011029  RH  080%=      5-min Rain = 0
KMC5 151036Z 25007KT 00/03 A3036 RMK A01 T00-00-30  RH  080%=      5-min Rain = 0
KMC5 151037Z 26008KT M00/M03 A3036 RMK A01 T10021031  RH  081%=      5-min Rain = 0
KMC5 151038Z 26009KT M00/M03 A3036 RMK A01 T10021028  RH  082%=      5-min Rain = 0
KMC5 151039Z 26009KT 00/M03 A3036 RMK A01 T00011025  RH  083%=      5-min Rain = 0
KMC5 151040Z 26009KT 00/M02 A3036 RMK A01 T00041023  RH  082%=      5-min Rain = 0
KMC5 151041Z 26009KT 01/M02 A3036 RMK A01 T00061023  RH  081%=      5-min Rain = 0
KMC5 151042Z 26009KT 01/M02 A3036 RMK A01 T00071023  RH  080%=      5-min Rain = 0
KMC5 151043Z 26010KT 01/M02 A3036 RMK A01 T00071023  RH  080%=      5-min Rain = 0
KMC5 151044Z 26011KT 01/M02 A3036 RMK A01 T00081023  RH  080%=      5-min Rain = 0
KMC5 151045Z 26011KT 01/M02 A3036 RMK A01 T00091022  RH  080%=      5-min Rain = 0
KMC5 151046Z 26011KT 01/M02 A3036 RMK A01 T00101022  RH  079%=      5-min Rain = 0
KMC5 151047Z 26011KT 01/M02 A3036 RMK A01 T00101023  RH  079%=      5-min Rain = 0
KMC5 151048Z 26011KT 01/M02 A3036 RMK A01 T00111022  RH  079%=      5-min Rain = 0
KMC5 151049Z 26010KT 01/M02 A3036 RMK A01 T00111022  RH  078%=      5-min Rain = 0
KMC5 151050Z 26010KT 01/M02 A3036 RMK A01 T00111022  RH  078%=      5-min Rain = 0
KMC5 151051Z 26010KT 01/M02 A3036 RMK A01 T00111022  RH  078%=      5-min Rain = 0
KMC5 151052Z 26010KT 01/M02 A3036 RMK A01 T00121022  RH  078%=      5-min Rain = 0
KMC5 151053Z 26010KT 01/M02 A3036 RMK A01 T00111023  RH  078%=      5-min Rain = 0
KMC5 151054Z 26010KT 01/M02 A3035 RMK A01 T00121022  RH  078%=      5-min Rain = 0
KMC5 151055Z 26010KT 01/M02 A3035 RMK A01 T00111023  RH  078%=      5-min Rain = 0
KMC5 151056Z 26010KT 01/M02 A3035 RMK A01 T00121022  RH  078%=      5-min Rain = 0
KMC5 151057Z 26010KT 01/M02 A3035 RMK A01 T00121023  RH  078%=      5-min Rain = 0
KMC5 151058Z 26010KT 01/M02 A3035 RMK A01 T00121023  RH  078%=      5-min Rain = 0
KMC5 151059Z 26010KT 01/M02 A3035 RMK A01 T00121023  RH  078%=      5-min Rain = 0
KMC5 151100Z 26010KT 01/M02 A3035 RMK A01 T00121023  RH  078%=      5-min Rain = 0
KMC5 151101Z 26010KT 01/M02 A3035 RMK A01 T00121023  RH  078%=      5-min Rain = 0
KMC5 151102Z 26010KT 01/M02 A3035 RMK A01 T00121023  RH  078%=      5-min Rain = 0
KMC5 151103Z 26010KT 01/M02 A3035 RMK A01 T00121023  RH  078%=      5-min Rain = 0
KMC5 151104Z 26009KT 01/M02 A3035 RMK A01 T00121023  RH  077%=      5-min Rain = 0
KMC5 151105Z 26009KT 01/M02 A3035 RMK A01 T00121023  RH  077%=      5-min Rain = 0
KMC5 151106Z 26009KT 01/M02 A3035 RMK A01 T00111024  RH  077%=      5-min Rain = 0
KMC5 151107Z 26009KT 01/M02 A3035 RMK A01 T00101024  RH  078%=      5-min Rain = 0
KMC5 151108Z 26009KT 01/M02 A3035 RMK A01 T00101024  RH  078%=      5-min Rain = 0
KMC5 151109Z 25009KT 01/M02 A3035 RMK A01 T00101024  RH  078%=      5-min Rain = 0
KMC5 151110Z 25009KT 01/M03 A3035 RMK A01 T00091025  RH  078%=      5-min Rain = 0
KMC5 151111Z 25009KT 01/M03 A3035 RMK A01 T00091025  RH  078%=      5-min Rain = 0
KMC5 151112Z 25009KT 01/M03 A3035 RMK A01 T00081025  RH  078%=      5-min Rain = 0
KMC5 151113Z 25009KT 01/M03 A3035 RMK A01 T00081025  RH  079%=      5-min Rain = 0
KMC5 151114Z 25009KT 01/M03 A3035 RMK A01 T00081025  RH  079%=      5-min Rain = 0
KMC5 151115Z 25009KT 01/M03 A3035 RMK A01 T00081025  RH  079%=      5-min Rain = 0
KMC5 151116Z 25009KT 01/M03 A3035 RMK A01 T00081025  RH  078%=      5-min Rain = 0
KMC5 151117Z 25009KT 01/M03 A3035 RMK A01 T00081025  RH  078%=      5-min Rain = 0
KMC5 151118Z 25010KT 01/M02 A3035 RMK A01 T00091024  RH  078%=      5-min Rain = 0
KMC5 151119Z 25009KT 01/M02 A3035 RMK A01 T00101024  RH  078%=      5-min Rain = 0
KMC5 151120Z 25009KT 01/M02 A3035 RMK A01 T00111024  RH  078%=      5-min Rain = 0
KMC5 151121Z 25009KT 01/M02 A3035 RMK A01 T00121024  RH  077%=      5-min Rain = 0
KMC5 151122Z 25009KT 01/M02 A3035 RMK A01 T00111024  RH  077%=      5-min Rain = 0
KMC5 151123Z 25009KT 01/M03 A3035 RMK A01 T00111025  RH  077%=      5-min Rain = 0
KMC5 151124Z 25009KT 01/M03 A3035 RMK A01 T00091025  RH  078%=      5-min Rain = 0
KMC5 151125Z 25009KT 01/M03 A3035 RMK A01 T00091025  RH  078%=      5-min Rain = 0
KMC5 151126Z 25009KT 01/M02 A3035 RMK A01 T00091024  RH  078%=      5-min Rain = 0
KMC5 151127Z 25010KT 01/M02 A3035 RMK A01 T00091024  RH  078%=      5-min Rain = 0
KMC5 151128Z 25009KT 01/M02 A3035 RMK A01 T00101024  RH  078%=      5-min Rain = 0
KMC5 151129Z 25009KT 01/M02 A3035 RMK A01 T00111024  RH  078%=      5-min Rain = 0
KMC5 151130Z 25009KT 01/M02 A3035 RMK A01 T00111023  RH  078%=      5-min Rain = 0
KMC5 151131Z 25009KT 01/M02 A3035 RMK A01 T00101024  RH  078%=      5-min Rain = 0
KMC5 151132Z 25009KT 01/M02 A3035 RMK A01 T00101024  RH  078%=      5-min Rain = 0
KMC5 151133Z 26009KT 01/M02 A3035 RMK A01 T00091024  RH  078%=      5-min Rain = 0
KMC5 151134Z 26009KT 01/M02 A3035 RMK A01 T00091024  RH  078%=      5-min Rain = 0
KMC5 151135Z 25009KT 01/M02 A3035 RMK A01 T00091024  RH  078%=      5-min Rain = 0
KMC5 151136Z 26009KT 01/M02 A3035 RMK A01 T00101024  RH  078%=      5-min Rain = 0
KMC5 151137Z 26010KT 01/M02 A3035 RMK A01 T00101023  RH  078%=      5-min Rain = 0
KMC5 151138Z 26010KT 01/M02 A3035 RMK A01 T00101023  RH  078%=      5-min Rain = 0
KMC5 151139Z 26010KT 01/M02 A3035 RMK A01 T00111023  RH  078%=      5-min Rain = 0
KMC5 151140Z 26010KT 01/M02 A3035 RMK A01 T00121023  RH  077%=      5-min Rain = 0
KMC5 151141Z 26010KT 01/M02 A3035 RMK A01 T00121023  RH  077%=      5-min Rain = 0
KMC5 151142Z 26010KT 01/M02 A3035 RMK A01 T00131023  RH  077%=      5-min Rain = 0
KMC5 151143Z 26009KT 01/M02 A3034 RMK A01 T00131023  RH  077%=      5-min Rain = 0
KMC5 151144Z 26010KT 01/M02 A3035 RMK A01 T00131023  RH  077%=      5-min Rain = 0
KMC5 151145Z 26009KT 01/M02 A3035 RMK A01 T00131023  RH  077%=      5-min Rain = 0
KMC5 151146Z 25009KT 01/M02 A3034 RMK A01 T00131023  RH  077%=      5-min Rain = 0
KMC5 151147Z 26009KT 01/M02 A3034 RMK A01 T00121024  RH  077%=      5-min Rain = 0
KMC5 151148Z 26009KT 01/M02 A3034 RMK A01 T00111024  RH  077%=      5-min Rain = 0
KMC5 151149Z 26009KT 01/M02 A3034 RMK A01 T00111024  RH  077%=      5-min Rain = 0
KMC5 151150Z 26010KT 01/M02 A3035 RMK A01 T00111024  RH  078%=      5-min Rain = 0
KMC5 151151Z 26010KT 01/M02 A3035 RMK A01 T00111024  RH  078%=      5-min Rain = 0
KMC5 151152Z 26010KT 01/M02 A3035 RMK A01 T00111024  RH  078%=      5-min Rain = 0
KMC5 151153Z 26010KT 01/M02 A3035 RMK A01 T00101024  RH  078%=      5-min Rain = 0
KMC5 151154Z 26011KT 01/M02 A3035 RMK A01 T00111024  RH  077%=      5-min Rain = 0
KMC5 151155Z 26010KT 01/M02 A3035 RMK A01 T00111024  RH  078%=      5-min Rain = 0
KMC5 151156Z 26010KT 01/M02 A3035 RMK A01 T00111024  RH  077%=      5-min Rain = 0
KMC5 151157Z 26010KT 01/M03 A3035 RMK A01 T00101025  RH  078%=      5-min Rain = 0
KMC5 151158Z 26010KT 01/M03 A3035 RMK A01 T00091025  RH  078%=      5-min Rain = 0
KMC5 151159Z 26010KT 01/M03 A3034 RMK A01 T00081026  RH  078%=      5-min Rain = 0
KMC5 151200Z 26010KT 01/M03 A3034 RMK A01 T00071027  RH  078%=      5-min Rain = 0
KMC5 151201Z 26009KT 01/M03 A3034 RMK A01 T00061027  RH  079%=      5-min Rain = 0
KMC5 151202Z 26009KT 01/M03 A3034 RMK A01 T00051027  RH  079%=      5-min Rain = 0
KMC5 151203Z 26009KT 00/M03 A3034 RMK A01 T00041027  RH  079%=      5-min Rain = 0
KMC5 151204Z 26009KT 00/M03 A3034 RMK A01 T00041027  RH  080%=      5-min Rain = 0
KMC5 151205Z 25009KT 00/M03 A3034 RMK A01 T00041027  RH  080%=      5-min Rain = 0
KMC5 151206Z 25009KT 00/M03 A3034 RMK A01 T00031028  RH  080%=      5-min Rain = 0
KMC5 151207Z 25008KT 00/M03 A3034 RMK A01 T00021028  RH  080%=      5-min Rain = 0
KMC5 151208Z 25008KT 00/M03 A3034 RMK A01 T00021028  RH  080%=      5-min Rain = 0
KMC5 151209Z 25009KT 00/M03 A3034 RMK A01 T00011029  RH  080%=      5-min Rain = 0
KMC5 151210Z 25008KT 00/M03 A3034 RMK A01 T00011028  RH  081%=      5-min Rain = 0
KMC5 151211Z 25008KT 00/03 A3034 RMK A01 T00000-29  RH  081%=      5-min Rain = 0
KMC5 151212Z 25008KT M00/M03 A3034 RMK A01 T10011030  RH  081%=      5-min Rain = 0
KMC5 151213Z 25008KT M00/M03 A3034 RMK A01 T10031032  RH  081%=      5-min Rain = 0
KMC5 151214Z 26009KT M00/M03 A3034 RMK A01 T10041031  RH  082%=      5-min Rain = 0
KMC5 151215Z 26009KT M00/M03 A3034 RMK A01 T10031029  RH  083%=      5-min Rain = 0
KMC5 151216Z 25009KT M00/M03 A3034 RMK A01 T10021028  RH  083%=      5-min Rain = 0
KMC5 151217Z 25009KT M00/M03 A3034 RMK A01 T10011028  RH  082%=      5-min Rain = 0
KMC5 151218Z 25009KT 00/03 A3034 RMK A01 T00-00-28  RH  082%=      5-min Rain = 0
KMC5 151219Z 25008KT 00/03 A3034 RMK A01 T00-00-29  RH  081%=      5-min Rain = 0
KMC5 151220Z 25007KT M00/M03 A3034 RMK A01 T10011029  RH  081%=      5-min Rain = 0
KMC5 151221Z 25007KT M00/M03 A3034 RMK A01 T10041034  RH  081%=      5-min Rain = 0
KMC5 151222Z 24007KT M01/M04 A3034 RMK A01 T10081036  RH  081%=      5-min Rain = 0
KMC5 151223Z 25007KT M01/M03 A3034 RMK A01 T10091034  RH  083%=      5-min Rain = 0
KMC5 151224Z 25007KT M01/M03 A3034 RMK A01 T10091033  RH  084%=      5-min Rain = 0
KMC5 151225Z 25007KT M01/M03 A3034 RMK A01 T10071032  RH  084%=      5-min Rain = 0
KMC5 151226Z 25007KT M01/M03 A3034 RMK A01 T10071032  RH  083%=      5-min Rain = 0
KMC5 151227Z 25007KT M01/M03 A3034 RMK A01 T10081033  RH  083%=      5-min Rain = 0
KMC5 151228Z 25007KT M01/M03 A3033 RMK A01 T10081033  RH  084%=      5-min Rain = 0
KMC5 151229Z 25008KT M01/M03 A3033 RMK A01 T10081032  RH  084%=      5-min Rain = 0
KMC5 151230Z 25008KT M01/M03 A3033 RMK A01 T10071031  RH  084%=      5-min Rain = 0
KMC5 151231Z 25009KT M01/M03 A3033 RMK A01 T10061031  RH  083%=      5-min Rain = 0
KMC5 151232Z 25008KT M01/M03 A3033 RMK A01 T10051030  RH  083%=      5-min Rain = 0
KMC5 151233Z 25008KT M00/M03 A3034 RMK A01 T10031030  RH  083%=      5-min Rain = 0
KMC5 151234Z 24008KT M00/M03 A3034 RMK A01 T10031030  RH  082%=      5-min Rain = 0
KMC5 151235Z 24007KT M00/M03 A3034 RMK A01 T10021029  RH  082%=      5-min Rain = 0
KMC5 151236Z 24007KT M00/M03 A3034 RMK A01 T10011030  RH  081%=      5-min Rain = 0
KMC5 151237Z 24006KT M00/M03 A3034 RMK A01 T10011030  RH  081%=      5-min Rain = 0
KMC5 151238Z 24007KT M00/M03 A3034 RMK A01 T10011030  RH  081%=      5-min Rain = 0
KMC5 151239Z 24006KT M00/M03 A3034 RMK A01 T10021031  RH  081%=      5-min Rain = 0
KMC5 151240Z 24006KT M00/M03 A3034 RMK A01 T10031031  RH  082%=      5-min Rain = 0
KMC5 151241Z 25007KT M00/M03 A3034 RMK A01 T10031030  RH  082%=      5-min Rain = 0
KMC5 151242Z 25007KT M00/M03 A3034 RMK A01 T10041030  RH  082%=      5-min Rain = 0
KMC5 151243Z 25007KT M00/M03 A3034 RMK A01 T10041031  RH  082%=      5-min Rain = 0
KMC5 151244Z 25008KT M01/M03 A3034 RMK A01 T10051031  RH  083%=      5-min Rain = 0
KMC5 151245Z 25007KT M01/M03 A3034 RMK A01 T10051030  RH  083%=      5-min Rain = 0
KMC5 151246Z 25007KT M01/M03 A3034 RMK A01 T10051030  RH  083%=      5-min Rain = 0
KMC5 151247Z 25007KT M00/M03 A3034 RMK A01 T10041030  RH  083%=      5-min Rain = 0
KMC5 151248Z 25008KT M01/M03 A3034 RMK A01 T10051031  RH  083%=      5-min Rain = 0
KMC5 151249Z 25007KT M01/M03 A3034 RMK A01 T10061031  RH  083%=      5-min Rain = 0
KMC5 151250Z 25007KT M01/M03 A3034 RMK A01 T10061031  RH  083%=      5-min Rain = 0
KMC5 151251Z 25008KT M01/M03 A3034 RMK A01 T10061031  RH  083%=      5-min Rain = 0
KMC5 151252Z 25008KT M01/M03 A3034 RMK A01 T10061031  RH  083%=      5-min Rain = 0
KMC5 151253Z 25008KT M01/M03 A3034 RMK A01 T10061031  RH  083%=      5-min Rain = 0
KMC5 151254Z 25008KT M01/M03 A3034 RMK A01 T10061031  RH  083%=      5-min Rain = 0
KMC5 151255Z 25008KT M01/M03 A3034 RMK A01 T10061031  RH  083%=      5-min Rain = 0
KMC5 151256Z 25008KT M01/M03 A3034 RMK A01 T10061031  RH  083%=      5-min Rain = 0
KMC5 151257Z 25007KT M01/M03 A3034 RMK A01 T10061031  RH  083%=      5-min Rain = 0
KMC5 151258Z 25007KT M01/M03 A3034 RMK A01 T10061032  RH  083%=      5-min Rain = 0
KMC5 151259Z 25008KT M01/M03 A3034 RMK A01 T10071032  RH  083%=      5-min Rain = 0
KMC5 151300Z 25008KT M01/M03 A3034 RMK A01 T10081033  RH  083%=      5-min Rain = 0
KMC5 151301Z 25007KT M01/M03 A3034 RMK A01 T10081032  RH  084%=      5-min Rain = 0
KMC5 151302Z 25007KT M01/M03 A3034 RMK A01 T10091033  RH  084%=      5-min Rain = 0
KMC5 151303Z 25007KT M01/M03 A3034 RMK A01 T10091033  RH  084%=      5-min Rain = 0
KMC5 151304Z 25007KT M01/M03 A3034 RMK A01 T10101033  RH  084%=      5-min Rain = 0
KMC5 151305Z 25007KT M01/M03 A3034 RMK A01 T10091032  RH  084%=      5-min Rain = 0
KMC5 151306Z 25007KT M01/M03 A3034 RMK A01 T10081031  RH  084%=      5-min Rain = 0
KMC5 151307Z 25007KT M01/M03 A3034 RMK A01 T10081032  RH  084%=      5-min Rain = 0
KMC5 151308Z 25007KT M01/M03 A3034 RMK A01 T10081032  RH  084%=      5-min Rain = 0
KMC5 151309Z 25007KT M01/M03 A3034 RMK A01 T10081032  RH  084%=      5-min Rain = 0
KMC5 151310Z 25007KT M01/M03 A3034 RMK A01 T10081032  RH  084%=      5-min Rain = 0
KMC5 151311Z 25008KT M01/M03 A3034 RMK A01 T10091033  RH  084%=      5-min Rain = 0
KMC5 151312Z 25007KT M01/M03 A3034 RMK A01 T10091033  RH  084%=      5-min Rain = 0
KMC5 151313Z 25008KT M01/M03 A3034 RMK A01 T10101033  RH  084%=      5-min Rain = 0
KMC5 151314Z 25008KT M01/M03 A3033 RMK A01 T10091033  RH  084%=      5-min Rain = 0
KMC5 151315Z 25008KT M01/M03 A3033 RMK A01 T10091033  RH  084%=      5-min Rain = 0
KMC5 151316Z 25008KT M01/M03 A3033 RMK A01 T10091033  RH  084%=      5-min Rain = 0
KMC5 151317Z 25008KT M01/M03 A3033 RMK A01 T10091032  RH  084%=      5-min Rain = 0
KMC5 151318Z 25008KT M01/M03 A3033 RMK A01 T10091032  RH  084%=      5-min Rain = 0
KMC5 151319Z 25008KT M01/M03 A3033 RMK A01 T10091032  RH  084%=      5-min Rain = 0
KMC5 151320Z 25008KT M01/M03 A3033 RMK A01 T10081033  RH  084%=      5-min Rain = 0
KMC5 151321Z 25008KT M01/M03 A3033 RMK A01 T10091032  RH  084%=      5-min Rain = 0
KMC5 151322Z 25008KT M01/M03 A3033 RMK A01 T10091033  RH  084%=      5-min Rain = 0
KMC5 151323Z 25008KT M01/M03 A3033 RMK A01 T10091033  RH  084%=      5-min Rain = 0
KMC5 151324Z 24008KT M01/M03 A3033 RMK A01 T10101033  RH  084%=      5-min Rain = 0
KMC5 151325Z 25008KT M01/M03 A3033 RMK A01 T10091033  RH  084%=      5-min Rain = 0
KMC5 151326Z 25008KT M01/M03 A3033 RMK A01 T10081031  RH  084%=      5-min Rain = 0
KMC5 151327Z 25008KT M01/M03 A3033 RMK A01 T10081031  RH  084%=      5-min Rain = 0
KMC5 151328Z 24008KT M01/M03 A3033 RMK A01 T10071031  RH  084%=      5-min Rain = 0
KMC5 151329Z 25008KT M01/M03 A3033 RMK A01 T10071030  RH  084%=      5-min Rain = 0
KMC5 151330Z 25008KT M01/M03 A3033 RMK A01 T10061030  RH  084%=      5-min Rain = 0
KMC5 151331Z 25008KT M01/M03 A3033 RMK A01 T10061030  RH  084%=      5-min Rain = 0
KMC5 151332Z 25008KT M01/M03 A3033 RMK A01 T10061030  RH  084%=      5-min Rain = 0
KMC5 151333Z 25009KT M01/M03 A3033 RMK A01 T10051029  RH  084%=      5-min Rain = 0
KMC5 151334Z 24008KT M01/M03 A3033 RMK A01 T10051029  RH  083%=      5-min Rain = 0
KMC5 151335Z 25009KT M00/M03 A3033 RMK A01 T10041028  RH  084%=      5-min Rain = 0
KMC5 151336Z 25009KT M00/M03 A3033 RMK A01 T10031028  RH  083%=      5-min Rain = 0
KMC5 151337Z 25009KT M00/M03 A3033 RMK A01 T10021027  RH  083%=      5-min Rain = 0
KMC5 151338Z 25009KT M00/M03 A3033 RMK A01 T10011026  RH  083%=      5-min Rain = 0
KMC5 151339Z 25009KT 00/M02 A3034 RMK A01 T00011024  RH  083%=      5-min Rain = 0
KMC5 151340Z 25010KT 00/M02 A3034 RMK A01 T00021023  RH  083%=      5-min Rain = 0
KMC5 151341Z 25010KT 00/M02 A3034 RMK A01 T00041023  RH  082%=      5-min Rain = 0
KMC5 151342Z 25010KT 01/M02 A3034 RMK A01 T00051022  RH  082%=      5-min Rain = 0
KMC5 151343Z 26010KT 01/M02 A3034 RMK A01 T00061022  RH  081%=      5-min Rain = 0
KMC5 151344Z 25011KT 01/M02 A3034 RMK A01 T00081022  RH  081%=      5-min Rain = 0
KMC5 151345Z 25010KT 01/M02 A3034 RMK A01 T00091022  RH  080%=      5-min Rain = 0
KMC5 151346Z 25010KT 01/M02 A3034 RMK A01 T00101022  RH  080%=      5-min Rain = 0
KMC5 151347Z 25010KT 01/M02 A3034 RMK A01 T00101022  RH  079%=      5-min Rain = 0
KMC5 151348Z 25010KT 01/M02 A3034 RMK A01 T00101022  RH  079%=      5-min Rain = 0
KMC5 151349Z 25010KT 01/M02 A3034 RMK A01 T00111021  RH  079%=      5-min Rain = 0
KMC5 151350Z 25010KT 01/M02 A3034 RMK A01 T00111021  RH  079%=      5-min Rain = 0
KMC5 151351Z 25010KT 01/M02 A3034 RMK A01 T00121020  RH  079%=      5-min Rain = 0
KMC5 151352Z 25010KT 01/M02 A3034 RMK A01 T00131020  RH  079%=      5-min Rain = 0
KMC5 151353Z 24009KT 01/M02 A3034 RMK A01 T00131020  RH  078%=      5-min Rain = 0
KMC5 151354Z 24008KT 01/M02 A3034 RMK A01 T00131020  RH  078%=      5-min Rain = 0
KMC5 151355Z 24008KT 01/M02 A3034 RMK A01 T00131020  RH  079%=      5-min Rain = 0
KMC5 151356Z 24007KT 01/M02 A3034 RMK A01 T00131020  RH  079%=      5-min Rain = 0
KMC5 151357Z 24007KT 01/M02 A3034 RMK A01 T00131020  RH  079%=      5-min Rain = 0
KMC5 151358Z 24007KT 01/M02 A3034 RMK A01 T00131020  RH  079%=      5-min Rain = 0
KMC5 151359Z 24007KT 01/M02 A3034 RMK A01 T00121020  RH  079%=      5-min Rain = 0
KMC5 151400Z 23007KT 01/M02 A3034 RMK A01 T00121020  RH  079%=      5-min Rain = 0
KMC5 151401Z 23007KT 01/M02 A3034 RMK A01 T00121020  RH  079%=      5-min Rain = 0
KMC5 151402Z 23007KT 01/M02 A3034 RMK A01 T00121020  RH  079%=      5-min Rain = 0
KMC5 151403Z 23007KT 01/M02 A3034 RMK A01 T00131020  RH  079%=      5-min Rain = 0
KMC5 151404Z 23007KT 01/M02 A3034 RMK A01 T00131020  RH  079%=      5-min Rain = 0
KMC5 151405Z 24007KT 01/M02 A3034 RMK A01 T00131020  RH  079%=      5-min Rain = 0
KMC5 151406Z 24007KT 01/M02 A3034 RMK A01 T00141020  RH  078%=      5-min Rain = 0
KMC5 151407Z 24007KT 02/M02 A3034 RMK A01 T00151019  RH  078%=      5-min Rain = 0
KMC5 151408Z 24007KT 02/M02 A3034 RMK A01 T00151019  RH  078%=      5-min Rain = 0
KMC5 151409Z 24008KT 02/M02 A3034 RMK A01 T00151019  RH  078%=      5-min Rain = 0
KMC5 151410Z 24007KT 02/M02 A3034 RMK A01 T00161019  RH  077%=      5-min Rain = 0
KMC5 151411Z 24007KT 02/M02 A3034 RMK A01 T00171019  RH  077%=      5-min Rain = 0
KMC5 151412Z 24007KT 02/M02 A3034 RMK A01 T00181018  RH  077%=      5-min Rain = 0
KMC5 151413Z 24007KT 02/M02 A3034 RMK A01 T00181018  RH  077%=      5-min Rain = 0
KMC5 151414Z 24007KT 02/M02 A3034 RMK A01 T00201017  RH  077%=      5-min Rain = 0
KMC5 151415Z 23008KT 02/M02 A3034 RMK A01 T00211017  RH  076%=      5-min Rain = 0
KMC5 151416Z 23008KT 02/M02 A3034 RMK A01 T00221017  RH  075%=      5-min Rain = 0
KMC5 151417Z 23007KT 02/M02 A3034 RMK A01 T00241017  RH  075%=      5-min Rain = 0
KMC5 151418Z 23008KT 03/M02 A3034 RMK A01 T00251016  RH  074%=      5-min Rain = 0
KMC5 151419Z 23008KT 03/M02 A3034 RMK A01 T00261016  RH  074%=      5-min Rain = 0
KMC5 151420Z 23007KT 03/M02 A3034 RMK A01 T00281017  RH  073%=      5-min Rain = 0
KMC5 151421Z 23007KT 03/M02 A3034 RMK A01 T00291016  RH  072%=      5-min Rain = 0
KMC5 151422Z 23007KT 03/M02 A3034 RMK A01 T00301016  RH  072%=      5-min Rain = 0
KMC5 151423Z 23007KT 03/M02 A3034 RMK A01 T00311016  RH  071%=      5-min Rain = 0
KMC5 151424Z 23008KT 03/M02 A3034 RMK A01 T00311016  RH  071%=      5-min Rain = 0
KMC5 151425Z 23007KT 03/M02 A3034 RMK A01 T00321015  RH  071%=      5-min Rain = 0
KMC5 151426Z 22007KT 03/M01 A3034 RMK A01 T00341014  RH  071%=      5-min Rain = 0
KMC5 151427Z 22007KT 04/M01 A3034 RMK A01 T00351013  RH  071%=      5-min Rain = 0
KMC5 151428Z 22007KT 04/M01 A3034 RMK A01 T00361012  RH  071%=      5-min Rain = 0
KMC5 151429Z 22007KT 04/M01 A3034 RMK A01 T00361013  RH  070%=      5-min Rain = 0
KMC5 151430Z 22006KT 04/M01 A3034 RMK A01 T00371013  RH  070%=      5-min Rain = 0
KMC5 151431Z 21007KT 04/M01 A3034 RMK A01 T00381012  RH  070%=      5-min Rain = 0
KMC5 151432Z 21006KT 04/M01 A3034 RMK A01 T00381013  RH  070%=      5-min Rain = 0
KMC5 151433Z 21007KT 04/M01 A3034 RMK A01 T00381013  RH  070%=      5-min Rain = 0
KMC5 151434Z 21007KT 04/M01 A3034 RMK A01 T00381012  RH  070%=      5-min Rain = 0
KMC5 151435Z 21007KT 04/M01 A3034 RMK A01 T00391010  RH  070%=      5-min Rain = 0
KMC5 151436Z 22007KT 04/M01 A3034 RMK A01 T00401010  RH  070%=      5-min Rain = 0
KMC5 151437Z 21007KT 04/M01 A3034 RMK A01 T00421009  RH  070%=      5-min Rain = 0
KMC5 151438Z 22006KT 04/M01 A3034 RMK A01 T00441008  RH  069%=      5-min Rain = 0
KMC5 151439Z 22006KT 05/M01 A3034 RMK A01 T00451008  RH  069%=      5-min Rain = 0
KMC5 151440Z 22007KT 05/M01 A3034 RMK A01 T00461006  RH  069%=      5-min Rain = 0
KMC5 151441Z 22007KT 05/M01 A3034 RMK A01 T00481007  RH  068%=      5-min Rain = 0
KMC5 151442Z 22007KT 05/M01 A3034 RMK A01 T00491008  RH  067%=      5-min Rain = 0
KMC5 151443Z 23006KT 05/M01 A3034 RMK A01 T00491007  RH  067%=      5-min Rain = 0
KMC5 151444Z 23006KT 05/M01 A3035 RMK A01 T00501006  RH  067%=      5-min Rain = 0
KMC5 151445Z 23006KT 05/M01 A3035 RMK A01 T00511005  RH  067%=      5-min Rain = 0
KMC5 151446Z 23006KT 05/M00 A3035 RMK A01 T00521004  RH  067%=      5-min Rain = 0
KMC5 151447Z 23006KT 05/M00 A3035 RMK A01 T00531003  RH  067%=      5-min Rain = 0
KMC5 151448Z 23006KT 05/M00 A3035 RMK A01 T00541002  RH  067%=      5-min Rain = 0
KMC5 151449Z 23006KT 06/M00 A3034 RMK A01 T00551003  RH  066%=      5-min Rain = 0
KMC5 151450Z 23006KT 06/M00 A3034 RMK A01 T00561003  RH  066%=      5-min Rain = 0
KMC5 151451Z 23006KT 06/M00 A3034 RMK A01 T00571003  RH  066%=      5-min Rain = 0
KMC5 151452Z 23007KT 06/M01 A3034 RMK A01 T00571005  RH  065%=      5-min Rain = 0
KMC5 151453Z 23006KT 06/M00 A3034 RMK A01 T00571004  RH  065%=      5-min Rain = 0
KMC5 151454Z 23007KT 06/M00 A3034 RMK A01 T00581003  RH  065%=      5-min Rain = 0
KMC5 151455Z 23007KT 06/M00 A3034 RMK A01 T00591002  RH  065%=      5-min Rain = 0
KMC5 151456Z 23007KT 06/00 A3034 RMK A01 T006100-0  RH  065%=      5-min Rain = 0
KMC5 151457Z 23007KT 06/00 A3034 RMK A01 T006200-0  RH  064%=      5-min Rain = 0
KMC5 151458Z 23008KT 06/M00 A3034 RMK A01 T00631002  RH  063%=      5-min Rain = 0
KMC5 151459Z 23008KT 06/M00 A3034 RMK A01 T00631002  RH  063%=      5-min Rain = 0
KMC5 151500Z 23007KT 06/00 A3034 RMK A01 T006400-0  RH  063%=      5-min Rain = 0
KMC5 151501Z 23007KT 07/00 A3034 RMK A01 T00660001  RH  063%=      5-min Rain = 0
KMC5 151502Z 23009KT 07/M00 A3034 RMK A01 T00671001  RH  062%=      5-min Rain = 0
KMC5 151503Z 23008KT 07/M00 A3034 RMK A01 T00681001  RH  062%=      5-min Rain = 0
KMC5 151504Z 22007KT 07/M00 A3034 RMK A01 T00691001  RH  061%=      5-min Rain = 0
KMC5 151505Z 23008KT 07/00 A3034 RMK A01 T00700000  RH  061%=      5-min Rain = 0
KMC5 151506Z 22009KT 07/M00 A3034 RMK A01 T00711001  RH  060%=      5-min Rain = 0
KMC5 151507Z 22008KT 07/M00 A3034 RMK A01 T00731001  RH  060%=      5-min Rain = 0
KMC5 151508Z 23008KT 08/00 A3034 RMK A01 T00750002  RH  060%=      5-min Rain = 0
KMC5 151509Z 22009KT 08/00 A3034 RMK A01 T00760000  RH  059%=      5-min Rain = 0
KMC5 151510Z 22012KT 08/M00 A3034 RMK A01 T00781001  RH  057%=      5-min Rain = 0
KMC5 151511Z 21013KT 08/M00 A3034 RMK A01 T00791004  RH  056%=      5-min Rain = 0
KMC5 151512Z 21012KT 08/M01 A3034 RMK A01 T00801006  RH  055%=      5-min Rain = 0
KMC5 151513Z 22012KT 08/M01 A3034 RMK A01 T00801006  RH  055%=      5-min Rain = 0
KMC5 151514Z 22013KT 08/M01 A3034 RMK A01 T00801007  RH  054%=      5-min Rain = 0
KMC5 151515Z 22013KT 08/M01 A3034 RMK A01 T00801007  RH  054%=      5-min Rain = 0
KMC5 151516Z 21012KT 08/M01 A3034 RMK A01 T00811007  RH  054%=      5-min Rain = 0
KMC5 151517Z 22012KT 08/M01 A3034 RMK A01 T00821006  RH  054%=      5-min Rain = 0
KMC5 151518Z 22012KT 08/M01 A3034 RMK A01 T00831006  RH  054%=      5-min Rain = 0
KMC5 151519Z 21013KT 08/M01 A3034 RMK A01 T00831007  RH  053%=      5-min Rain = 0
KMC5 151520Z 22011KT 08/M01 A3034 RMK A01 T00841007  RH  053%=      5-min Rain = 0
KMC5 151521Z 21013KT 08/M01 A3034 RMK A01 T00841006  RH  053%=      5-min Rain = 0
KMC5 151522Z 21012KT 09/M01 A3034 RMK A01 T00851007  RH  052%=      5-min Rain = 0
KMC5 151523Z 21011KT 09/M01 A3034 RMK A01 T00861007  RH  052%=      5-min Rain = 0
KMC5 151524Z 21012KT 09/M01 A3034 RMK A01 T00871006  RH  052%=      5-min Rain = 0
KMC5 151525Z 21011KT 09/M01 A3034 RMK A01 T00871006  RH  052%=      5-min Rain = 0
KMC5 151526Z 21013KT 09/M01 A3034 RMK A01 T00891006  RH  051%=      5-min Rain = 0
KMC5 151527Z 22013KT 09/M01 A3034 RMK A01 T00891008  RH  051%=      5-min Rain = 0
KMC5 151528Z 22011KT 09/M01 A3034 RMK A01 T00891007  RH  051%=      5-min Rain = 0
KMC5 151529Z 22012KT 09/M01 A3034 RMK A01 T00901006  RH  051%=      5-min Rain = 0
KMC5 151530Z 22012KT 09/M01 A3034 RMK A01 T00901006  RH  051%=      5-min Rain = 0
KMC5 151531Z 21010KT 09/M01 A3034 RMK A01 T00911006  RH  050%=      5-min Rain = 0
KMC5 151532Z 21011KT 09/M00 A3034 RMK A01 T00931004  RH  050%=      5-min Rain = 0
KMC5 151533Z 21013KT 09/M01 A3034 RMK A01 T00941007  RH  049%=      5-min Rain = 0
KMC5 151534Z 22012KT 09/M01 A3034 RMK A01 T00931007  RH  049%=      5-min Rain = 0
KMC5 151535Z 21011KT 09/M01 A3034 RMK A01 T00931007  RH  050%=      5-min Rain = 0
KMC5 151536Z 22012KT 09/M01 A3034 RMK A01 T00941006  RH  050%=      5-min Rain = 0
KMC5 151537Z 22014KT 10/M01 A3034 RMK A01 T00951007  RH  049%=      5-min Rain = 0
KMC5 151538Z 22014KT 10/M01 A3034 RMK A01 T00951008  RH  048%=      5-min Rain = 0
KMC5 151539Z 22014KT 10/M01 A3034 RMK A01 T00951008  RH  048%=      5-min Rain = 0
KMC5 151540Z 22014KT 10/M01 A3034 RMK A01 T00951009  RH  048%=      5-min Rain = 0
KMC5 151541Z 22014KT 10/M01 A3034 RMK A01 T00951009  RH  048%=      5-min Rain = 0
KMC5 151542Z 22012KT 10/M01 A3034 RMK A01 T00951010  RH  048%=      5-min Rain = 0
KMC5 151543Z 23011KT 10/M01 A3034 RMK A01 T00951008  RH  048%=      5-min Rain = 0
KMC5 151544Z 22011KT 10/M01 A3034 RMK A01 T00961007  RH  048%=      5-min Rain = 0
KMC5 151545Z 21011KT 10/M01 A3034 RMK A01 T00991005  RH  048%=      5-min Rain = 0
KMC5 151546Z 21014KT 10/M01 A3034 RMK A01 T01011008  RH  047%=      5-min Rain = 0
KMC5 151547Z 21012KT 10/M01 A3034 RMK A01 T00991010  RH  047%=      5-min Rain = 0
KMC5 151548Z 21013KT 10/M01 A3034 RMK A01 T00981009  RH  047%=      5-min Rain = 0
KMC5 151549Z 21012KT 10/M01 A3034 RMK A01 T00981009  RH  047%=      5-min Rain = 0
KMC5 151550Z 21012KT 10/M01 A3034 RMK A01 T00991008  RH  047%=      5-min Rain = 0
KMC5 151551Z 21012KT 10/M01 A3034 RMK A01 T00991008  RH  047%=      5-min Rain = 0
KMC5 151552Z 21013KT 10/M01 A3034 RMK A01 T01001008  RH  047%=      5-min Rain = 0
KMC5 151553Z 21013KT 10/M01 A3034 RMK A01 T01011008  RH  047%=      5-min Rain = 0
KMC5 151554Z 21011KT 10/M01 A3034 RMK A01 T01021008  RH  046%=      5-min Rain = 0
KMC5 151555Z 21010KT 10/M01 A3034 RMK A01 T01031005  RH  047%=      5-min Rain = 0
KMC5 151556Z 21011KT 11/M01 A3034 RMK A01 T01061006  RH  046%=      5-min Rain = 0
KMC5 151557Z 21014KT 11/M01 A3034 RMK A01 T01061007  RH  046%=      5-min Rain = 0
KMC5 151558Z 21013KT 10/M01 A3033 RMK A01 T01041010  RH  045%=      5-min Rain = 0
KMC5 151559Z 21013KT 10/M01 A3033 RMK A01 T01031009  RH  046%=      5-min Rain = 0
KMC5 151600Z 21010KT 10/M01 A3033 RMK A01 T01031008  RH  046%=      5-min Rain = 0
KMC5 151601Z 21012KT 11/M01 A3033 RMK A01 T01051007  RH  046%=      5-min Rain = 0
KMC5 151602Z 21009KT 11/M01 A3033 RMK A01 T01061008  RH  045%=      5-min Rain = 0
KMC5 151603Z 21012KT 11/M01 A3033 RMK A01 T01091006  RH  045%=      5-min Rain = 0
KMC5 151604Z 20011KT 11/M01 A3033 RMK A01 T01101007  RH  044%=      5-min Rain = 0
KMC5 151605Z 21013KT 11/M01 A3033 RMK A01 T01111007  RH  044%=      5-min Rain = 0
KMC5 151606Z 21014KT 11/M01 A3033 RMK A01 T01111009  RH  043%=      5-min Rain = 0
KMC5 151607Z 21014KT 11/M01 A3033 RMK A01 T01101009  RH  044%=      5-min Rain = 0
KMC5 151608Z 21013KT 11/M01 A3033 RMK A01 T01101010  RH  043%=      5-min Rain = 0
KMC5 151609Z 20013KT 11/M01 A3033 RMK A01 T01091010  RH  043%=      5-min Rain = 0
KMC5 151610Z 20013KT 11/M01 A3033 RMK A01 T01091010  RH  043%=      5-min Rain = 0
KMC5 151611Z 20013KT 11/M01 A3033 RMK A01 T01111009  RH  043%=      5-min Rain = 0
KMC5 151612Z 20013KT 11/M01 A3033 RMK A01 T01121009  RH  043%=      5-min Rain = 0
KMC5 151613Z 20013KT 11/M01 A3033 RMK A01 T01111010  RH  043%=      5-min Rain = 0
KMC5 151614Z 19014KT 11/M01 A3033 RMK A01 T01111010  RH  043%=      5-min Rain = 0
KMC5 151615Z 20015KT 11/M01 A3033 RMK A01 T01121011  RH  042%=      5-min Rain = 0
KMC5 151616Z 20015KT 11/M01 A3033 RMK A01 T01131012  RH  042%=      5-min Rain = 0
KMC5 151617Z 19015KT 11/M01 A3033 RMK A01 T01141012  RH  042%=      5-min Rain = 0
KMC5 151618Z 21016KT 11/M01 A3033 RMK A01 T01141012  RH  042%=      5-min Rain = 0
KMC5 151619Z 20016KT 11/M01 A3033 RMK A01 T01141012  RH  042%=      5-min Rain = 0
KMC5 151620Z 20016KT 11/M01 A3033 RMK A01 T01131013  RH  042%=      5-min Rain = 0
KMC5 151621Z 20016KT 11/M01 A3033 RMK A01 T01111012  RH  042%=      5-min Rain = 0
KMC5 151622Z 20013KT 11/M01 A3033 RMK A01 T01111013  RH  042%=      5-min Rain = 0
KMC5 151623Z 21013G20KT 11/M01 A3033 RMK A01 T01141011  RH  042%=      5-min Rain = 0
KMC5 151624Z 20016KT 12/M01 A3033 RMK A01 T01151013  RH  041%=      5-min Rain = 0
KMC5 151625Z 21015KT 11/M01 A3033 RMK A01 T01141012  RH  042%=      5-min Rain = 0
KMC5 151626Z 21015KT 11/M01 A3033 RMK A01 T01141012  RH  042%=      5-min Rain = 0
KMC5 151627Z 21015KT 11/M01 A3033 RMK A01 T01131012  RH  042%=      5-min Rain = 0
KMC5 151628Z 21014KT 11/M01 A3033 RMK A01 T01131012  RH  042%=      5-min Rain = 0
KMC5 151629Z 21015KT 11/M01 A3033 RMK A01 T01131011  RH  042%=      5-min Rain = 0
KMC5 151630Z 19012KT 11/M01 A3033 RMK A01 T01141011  RH  042%=      5-min Rain = 0
KMC5 151631Z 19013KT 12/M01 A3033 RMK A01 T01171009  RH  042%=      5-min Rain = 0
KMC5 151632Z 19015KT 12/M01 A3033 RMK A01 T01171011  RH  041%=      5-min Rain = 0
KMC5 151633Z 19017KT 12/M01 A3033 RMK A01 T01151012  RH  041%=      5-min Rain = 0
KMC5 151634Z 20015KT 12/M01 A3033 RMK A01 T01151012  RH  041%=      5-min Rain = 0
KMC5 151635Z 21015KT 12/M01 A3033 RMK A01 T01171013  RH  041%=      5-min Rain = 0
KMC5 151636Z 20015KT 12/M01 A3033 RMK A01 T01171012  RH  041%=      5-min Rain = 0
KMC5 151637Z 21015KT 12/M01 A3033 RMK A01 T01171011  RH  041%=      5-min Rain = 0
KMC5 151638Z 21013KT 12/M01 A3033 RMK A01 T01171011  RH  041%=      5-min Rain = 0
KMC5 151639Z 19016G21KT 12/M01 A3033 RMK A01 T01161010  RH  041%=      5-min Rain = 0
KMC5 151640Z 20015KT 12/M01 A3033 RMK A01 T01171011  RH  041%=      5-min Rain = 0
KMC5 151641Z 20013KT 12/M01 A3033 RMK A01 T01161011  RH  041%=      5-min Rain = 0
KMC5 151642Z 20018KT 12/M01 A3033 RMK A01 T01171010  RH  041%=      5-min Rain = 0
KMC5 151643Z 20019KT 12/M01 A3033 RMK A01 T01181014  RH  040%=      5-min Rain = 0
KMC5 151644Z 21017KT 12/M01 A3033 RMK A01 T01171014  RH  040%=      5-min Rain = 0
KMC5 151645Z 20015KT 12/M01 A3033 RMK A01 T01181013  RH  040%=      5-min Rain = 0
KMC5 151646Z 20017KT 12/M01 A3033 RMK A01 T01181013  RH  040%=      5-min Rain = 0
KMC5 151647Z 19016KT 12/M01 A3033 RMK A01 T01181014  RH  040%=      5-min Rain = 0
KMC5 151648Z 20015KT 12/M01 A3033 RMK A01 T01181014  RH  040%=      5-min Rain = 0
KMC5 151649Z 20017KT 12/M01 A3033 RMK A01 T01201014  RH  039%=      5-min Rain = 0
KMC5 151650Z 19014KT 12/M02 A3033 RMK A01 T01191016  RH  039%=      5-min Rain = 0
KMC5 151651Z 18015KT 12/M01 A3033 RMK A01 T01201011  RH  040%=      5-min Rain = 0
KMC5 151652Z 18018KT 13/M01 A3032 RMK A01 T01251012  RH  039%=      5-min Rain = 0
KMC5 151653Z 19016KT 13/M01 A3032 RMK A01 T01271012  RH  038%=      5-min Rain = 0
KMC5 151654Z 20015KT 13/M02 A3032 RMK A01 T01271015  RH  037%=      5-min Rain = 0
KMC5 151655Z 21016KT 12/M02 A3032 RMK A01 T01241016  RH  038%=      5-min Rain = 0
KMC5 151656Z 20017KT 12/M02 A3032 RMK A01 T01241016  RH  038%=      5-min Rain = 0
KMC5 151657Z 20019KT 12/M02 A3032 RMK A01 T01241017  RH  037%=      5-min Rain = 0
KMC5 151658Z 20021KT 12/M02 A3032 RMK A01 T01231018  RH  038%=      5-min Rain = 0
KMC5 151659Z 21018KT 12/M02 A3032 RMK A01 T01221019  RH  038%=      5-min Rain = 0
KMC5 151700Z 21018G23KT 12/M02 A3032 RMK A01 T01221017  RH  038%=      5-min Rain = 0
KMC5 151701Z 20017KT 12/M02 A3032 RMK A01 T01231018  RH  037%=      5-min Rain = 0
KMC5 151702Z 21018KT 12/M02 A3032 RMK A01 T01231018  RH  037%=      5-min Rain = 0
KMC5 151703Z 20018KT 12/M02 A3032 RMK A01 T01231018  RH  037%=      5-min Rain = 0
KMC5 151704Z 21014KT 12/M02 A3032 RMK A01 T01231017  RH  038%=      5-min Rain = 0
KMC5 151705Z 21014KT 12/M02 A3032 RMK A01 T01241017  RH  038%=      5-min Rain = 0
KMC5 151706Z 20013G18KT 13/M02 A3032 RMK A01 T01261015  RH  038%=      5-min Rain = 0
KMC5 151707Z 20017KT 13/M02 A3032 RMK A01 T01271016  RH  037%=      5-min Rain = 0
KMC5 151708Z 20017KT 13/M02 A3032 RMK A01 T01251017  RH  037%=      5-min Rain = 0
KMC5 151709Z 18016KT 13/M02 A3032 RMK A01 T01251017  RH  037%=      5-min Rain = 0
KMC5 151710Z 18018KT 13/M02 A3032 RMK A01 T01301018  RH  036%=      5-min Rain = 0
KMC5 151711Z 18019KT 13/M02 A3032 RMK A01 T01281023  RH  035%=      5-min Rain = 0
KMC5 151712Z 19018KT 13/M02 A3032 RMK A01 T01281022  RH  035%=      5-min Rain = 0
KMC5 151713Z 18021KT 13/M02 A3031 RMK A01 T01291020  RH  035%=      5-min Rain = 0
KMC5 151714Z 18019KT 13/M02 A3031 RMK A01 T01281021  RH  035%=      5-min Rain = 0
KMC5 151715Z 18018KT 13/M02 A3031 RMK A01 T01281021  RH  035%=      5-min Rain = 0
KMC5 151716Z 20021KT 13/M02 A3031 RMK A01 T01311020  RH  035%=      5-min Rain = 0
KMC5 151717Z 19018KT 13/M02 A3031 RMK A01 T01281021  RH  035%=      5-min Rain = 0
KMC5 151718Z 18018KT 13/M02 A3031 RMK A01 T01261021  RH  036%=      5-min Rain = 0
KMC5 151719Z 18016KT 13/M02 A3031 RMK A01 T01271021  RH  036%=      5-min Rain = 0
KMC5 151720Z 19017KT 13/M02 A3031 RMK A01 T01301019  RH  035%=      5-min Rain = 0
KMC5 151721Z 19016KT 13/M02 A3031 RMK A01 T01311021  RH  035%=      5-min Rain = 0
KMC5 151722Z 18019G24KT 13/M02 A3031 RMK A01 T01301023  RH  034%=      5-min Rain = 0
KMC5 151723Z 18019KT 13/M03 A3031 RMK A01 T01301028  RH  033%=      5-min Rain = 0
KMC5 151724Z 19017KT 13/M03 A3031 RMK A01 T01281025  RH  034%=      5-min Rain = 0
KMC5 151725Z 20019KT 13/M03 A3031 RMK A01 T01281028  RH  034%=      5-min Rain = 0
KMC5 151726Z 20015KT 13/M02 A3031 RMK A01 T01281024  RH  035%=      5-min Rain = 0
KMC5 151727Z 21016KT 13/M02 A3031 RMK A01 T01331022  RH  034%=      5-min Rain = 0
KMC5 151728Z 20015KT 13/M02 A3031 RMK A01 T01341024  RH  033%=      5-min Rain = 0
KMC5 151729Z 19018KT 13/M03 A3031 RMK A01 T01331026  RH  033%=      5-min Rain = 0
KMC5 151730Z 18016KT 13/M03 A3031 RMK A01 T01311027  RH  033%=      5-min Rain = 0
KMC5 151731Z 20018KT 13/M03 A3031 RMK A01 T01321027  RH  033%=      5-min Rain = 0
KMC5 151732Z 20016KT 13/M03 A3031 RMK A01 T01321028  RH  033%=      5-min Rain = 0
KMC5 151733Z 21018KT 13/M03 A3031 RMK A01 T01331027  RH  033%=      5-min Rain = 0
KMC5 151734Z 20019KT 13/M03 A303 RMK A01 T01311026  RH  033%=      5-min Rain = 0
KMC5 151735Z 19018KT 13/M02 A303 RMK A01 T01291024  RH  034%=      5-min Rain = 0
KMC5 151736Z 20014G19KT 13/M02 A303 RMK A01 T01301024  RH  034%=      5-min Rain = 0
KMC5 151737Z 20015KT 14/M03 A303 RMK A01 T01351025  RH  033%=      5-min Rain = 0
KMC5 151738Z 19015KT 14/M02 A303 RMK A01 T01371024  RH  033%=      5-min Rain = 0
KMC5 151739Z 18017KT 14/M03 A303 RMK A01 T01371025  RH  033%=      5-min Rain = 0
KMC5 151740Z 19019KT 14/M03 A303 RMK A01 T01351028  RH  032%=      5-min Rain = 0
KMC5 151741Z 19016KT 13/M03 A303 RMK A01 T01331026  RH  033%=      5-min Rain = 0
KMC5 151742Z 20020KT 14/M03 A303 RMK A01 T01361028  RH  032%=      5-min Rain = 0
KMC5 151743Z 19018KT 13/M03 A303 RMK A01 T01321032  RH  032%=      5-min Rain = 0
KMC5 151744Z 19018KT 13/M03 A303 RMK A01 T01321032  RH  032%=      5-min Rain = 0
KMC5 151745Z 19018KT 13/M03 A303 RMK A01 T01311031  RH  033%=      5-min Rain = 0
KMC5 151746Z 19018KT 13/M03 A303 RMK A01 T01301029  RH  033%=      5-min Rain = 0
KMC5 151747Z 19017KT 13/M03 A303 RMK A01 T01301030  RH  033%=      5-min Rain = 0
KMC5 151748Z 20018KT 13/M03 A303 RMK A01 T01321029  RH  033%=      5-min Rain = 0
KMC5 151749Z 20019KT 13/M03 A303 RMK A01 T01311030  RH  033%=      5-min Rain = 0
KMC5 151750Z 20020KT 13/M03 A303 RMK A01 T01311029  RH  033%=      5-min Rain = 0
KMC5 151751Z 20020KT 13/M03 A303 RMK A01 T01301029  RH  033%=      5-min Rain = 0
KMC5 151752Z 20017G24KT 13/M03 A303 RMK A01 T01291033  RH  032%=      5-min Rain = 0
KMC5 151753Z 20017KT 13/M03 A303 RMK A01 T01321030  RH  032%=      5-min Rain = 0
KMC5 151754Z 21014KT 13/M03 A303 RMK A01 T01331029  RH  032%=      5-min Rain = 0
KMC5 151755Z 21015KT 14/M03 A303 RMK A01 T01351028  RH  032%=      5-min Rain = 0
KMC5 151756Z 21016KT 14/M03 A303 RMK A01 T01361028  RH  032%=      5-min Rain = 0
KMC5 151757Z 20019G24KT 14/M03 A303 RMK A01 T01351030  RH  032%=      5-min Rain = 0
KMC5 151758Z 19016KT 13/M03 A303 RMK A01 T01321030  RH  032%=      5-min Rain = 0
KMC5 151759Z 19019KT 13/M03 A303 RMK A01 T01341027  RH  032%=      5-min Rain = 0
KMC5 151800Z 18016KT 14/M03 A303 RMK A01 T01351028  RH  032%=      5-min Rain = 0
KMC5 151801Z 19018KT 14/M03 A303 RMK A01 T01351028  RH  032%=      5-min Rain = 0
KMC5 151802Z 20015KT 14/M03 A303 RMK A01 T01351030  RH  032%=      5-min Rain = 0
KMC5 151803Z 20016KT 14/M03 A303 RMK A01 T01361029  RH  032%=      5-min Rain = 0
KMC5 151804Z 20016KT 14/M03 A303 RMK A01 T01371027  RH  032%=      5-min Rain = 0
KMC5 151805Z 18015KT 14/M02 A303 RMK A01 T01391024  RH  032%=      5-min Rain = 0
KMC5 151806Z 18015G20KT 14/M03 A303 RMK A01 T01401027  RH  031%=      5-min Rain = 0
KMC5 151807Z 17021KT 14/M03 A3029 RMK A01 T01391029  RH  031%=      5-min Rain = 0
KMC5 151808Z 18019KT 14/M03 A3029 RMK A01 T01361032  RH  031%=      5-min Rain = 0
KMC5 151809Z 19018KT 14/M03 A3029 RMK A01 T01351030  RH  032%=      5-min Rain = 0
KMC5 151810Z 18020KT 14/M03 A3029 RMK A01 T01371029  RH  032%=      5-min Rain = 0
KMC5 151811Z 18016KT 14/M03 A3029 RMK A01 T01371029  RH  032%=      5-min Rain = 0
KMC5 151812Z 19018G24KT 14/M03 A3029 RMK A01 T01381027  RH  032%=      5-min Rain = 0
KMC5 151813Z 19019KT 14/M03 A3029 RMK A01 T01411028  RH  031%=      5-min Rain = 0
KMC5 151814Z 18020KT 14/M03 A3029 RMK A01 T01411030  RH  031%=      5-min Rain = 0
KMC5 151815Z 19019KT 14/M03 A3029 RMK A01 T01401029  RH  031%=      5-min Rain = 0
KMC5 151816Z 19017G22KT 14/M03 A3029 RMK A01 T01391029  RH  031%=      5-min Rain = 0
KMC5 151817Z 20018KT 14/M03 A3029 RMK A01 T01391029  RH  031%=      5-min Rain = 0
KMC5 151818Z 20015KT 14/M03 A3029 RMK A01 T01401026  RH  032%=      5-min Rain = 0
KMC5 151819Z 20016G22KT 15/M02 A3029 RMK A01 T01451023  RH  031%=      5-min Rain = 0
KMC5 151820Z 20019KT 15/M03 A3028 RMK A01 T01461026  RH  030%=      5-min Rain = 0
KMC5 151821Z 19020G25KT 14/M03 A3028 RMK A01 T01421027  RH  031%=      5-min Rain = 0
KMC5 151822Z 19022KT 14/M03 A3028 RMK A01 T01411027  RH  031%=      5-min Rain = 0
KMC5 151823Z 19017KT 14/M03 A3028 RMK A01 T01371030  RH  031%=      5-min Rain = 0
KMC5 151824Z 20019KT 14/M03 A3028 RMK A01 T01381027  RH  032%=      5-min Rain = 0
KMC5 151825Z 20017KT 14/M03 A3028 RMK A01 T01391027  RH  032%=      5-min Rain = 0
KMC5 151826Z 20017KT 14/M03 A3028 RMK A01 T01381026  RH  032%=      5-min Rain = 0
KMC5 151827Z 19017G23KT 14/M03 A3028 RMK A01 T01371025  RH  032%=      5-min Rain = 0
KMC5 151828Z 19018KT 14/M03 A3028 RMK A01 T01381025  RH  032%=      5-min Rain = 0
KMC5 151829Z 19017KT 14/M02 A3028 RMK A01 T01401024  RH  032%=      5-min Rain = 0
KMC5 151830Z 18017KT 14/M03 A3028 RMK A01 T01431025  RH  031%=      5-min Rain = 0
KMC5 151831Z 19017G22KT 15/M02 A3028 RMK A01 T01461024  RH  031%=      5-min Rain = 0
KMC5 151832Z 19018KT 15/M03 A3027 RMK A01 T01461027  RH  030%=      5-min Rain = 0
KMC5 151833Z 20018KT 15/M03 A3027 RMK A01 T01461025  RH  031%=      5-min Rain = 0
KMC5 151834Z 21018KT 15/M03 A3027 RMK A01 T01451026  RH  031%=      5-min Rain = 0
KMC5 151835Z 20015KT 14/M03 A3027 RMK A01 T01431027  RH  031%=      5-min Rain = 0
KMC5 151836Z 19014G19KT 15/M02 A3027 RMK A01 T01451022  RH  032%=      5-min Rain = 0
KMC5 151837Z 20014KT 15/M02 A3027 RMK A01 T01471023  RH  031%=      5-min Rain = 0
KMC5 151838Z 21015KT 15/M03 A3027 RMK A01 T01451025  RH  031%=      5-min Rain = 0
KMC5 151839Z 19013G18KT 15/M02 A3027 RMK A01 T01451022  RH  032%=      5-min Rain = 0
KMC5 151840Z 18017KT 15/M02 A3027 RMK A01 T01481019  RH  032%=      5-min Rain = 0
KMC5 151841Z 18017KT 15/M02 A3027 RMK A01 T01461019  RH  032%=      5-min Rain = 0
KMC5 151842Z 19018G24KT 15/M02 A3027 RMK A01 T01461019  RH  032%=      5-min Rain = 0
KMC5 151843Z 20018KT 15/M02 A3027 RMK A01 T01461021  RH  032%=      5-min Rain = 0
KMC5 151844Z 18019KT 15/M02 A3027 RMK A01 T01471021  RH  031%=      5-min Rain = 0
KMC5 151845Z 20019KT 15/M02 A3027 RMK A01 T01451021  RH  032%=      5-min Rain = 0
KMC5 151846Z 20016KT 14/M02 A3027 RMK A01 T01441021  RH  032%=      5-min Rain = 0
KMC5 151847Z 19015KT 14/M02 A3026 RMK A01 T01431021  RH  032%=      5-min Rain = 0
KMC5 151848Z 19020G26KT 15/M02 A3026 RMK A01 T01451019  RH  032%=      5-min Rain = 0
KMC5 151849Z 20018KT 15/M02 A3026 RMK A01 T01481020  RH  031%=      5-min Rain = 0
KMC5 151850Z 20018KT 15/M02 A3026 RMK A01 T01471022  RH  031%=      5-min Rain = 0
KMC5 151851Z 21019KT 15/M02 A3026 RMK A01 T01461024  RH  031%=      5-min Rain = 0
KMC5 151852Z 20017KT 14/M02 A3026 RMK A01 T01441024  RH  031%=      5-min Rain = 0
KMC5 151853Z 20017G23KT 15/M02 A3026 RMK A01 T01461022  RH  031%=      5-min Rain = 0
KMC5 151854Z 20020KT 15/M02 A3026 RMK A01 T01491024  RH  030%=      5-min Rain = 0
KMC5 151855Z 20015G21KT 15/M03 A3026 RMK A01 T01461026  RH  030%=      5-min Rain = 0
KMC5 151856Z 19017G22KT 15/M02 A3026 RMK A01 T01461023  RH  031%=      5-min Rain = 0
KMC5 151857Z 19019KT 15/M02 A3026 RMK A01 T01471022  RH  031%=      5-min Rain = 0
KMC5 151858Z 19019KT 15/M02 A3025 RMK A01 T01471021  RH  032%=      5-min Rain = 0
KMC5 151859Z 20017KT 15/M02 A3025 RMK A01 T01461021  RH  032%=      5-min Rain = 0
KMC5 151900Z 19018KT 15/M02 A3025 RMK A01 T01481017  RH  032%=      5-min Rain = 0
KMC5 151901Z 18018KT 15/M02 A3025 RMK A01 T01501019  RH  031%=      5-min Rain = 0
KMC5 151902Z 18019KT 15/M02 A3025 RMK A01 T01501020  RH  031%=      5-min Rain = 0
KMC5 151903Z 18021KT 15/M02 A3025 RMK A01 T01491020  RH  031%=      5-min Rain = 0
KMC5 151904Z 18019KT 15/M02 A3025 RMK A01 T01481020  RH  031%=      5-min Rain = 0
KMC5 151905Z 18018KT 15/M02 A3025 RMK A01 T01461020  RH  032%=      5-min Rain = 0
KMC5 151906Z 19018KT 15/M02 A3025 RMK A01 T01471018  RH  032%=      5-min Rain = 0
KMC5 151907Z 19013G18KT 15/M02 A3025 RMK A01 T01501018  RH  031%=      5-min Rain = 0
KMC5 151908Z 20020G25KT 15/M02 A3025 RMK A01 T01531018  RH  031%=      5-min Rain = 0
KMC5 151909Z 20019KT 15/M02 A3025 RMK A01 T01491021  RH  031%=      5-min Rain = 0
KMC5 151910Z 19016KT 15/M02 A3025 RMK A01 T01481020  RH  031%=      5-min Rain = 0
KMC5 151911Z 17017KT 15/M02 A3025 RMK A01 T01501018  RH  032%=      5-min Rain = 0
KMC5 151912Z 18017KT 15/M02 A3025 RMK A01 T01501019  RH  031%=      5-min Rain = 0
KMC5 151913Z 19016G21KT 15/M02 A3025 RMK A01 T01501017  RH  032%=      5-min Rain = 0
KMC5 151914Z 18016KT 15/M02 A3025 RMK A01 T01511016  RH  032%=      5-min Rain = 0
KMC5 151915Z 19016G21KT 15/M01 A3024 RMK A01 T01531014  RH  032%=      5-min Rain = 0
KMC5 151916Z 18017KT 15/M02 A3024 RMK A01 T01531017  RH  031%=      5-min Rain = 0
KMC5 151917Z 19017G22KT 15/M02 A3024 RMK A01 T01521016  RH  031%=      5-min Rain = 0
KMC5 151918Z 18021KT 15/M02 A3024 RMK A01 T01511018  RH  031%=      5-min Rain = 0
KMC5 151919Z 18019KT 15/M02 A3024 RMK A01 T01481020  RH  031%=      5-min Rain = 0
KMC5 151920Z 17017KT 15/M02 A3024 RMK A01 T01481020  RH  031%=      5-min Rain = 0
KMC5 151921Z 18015KT 15/M02 A3024 RMK A01 T01501018  RH  031%=      5-min Rain = 0
KMC5 151922Z 19016KT 15/M02 A3024 RMK A01 T01531018  RH  031%=      5-min Rain = 0
KMC5 151923Z 18013KT 15/M02 A3024 RMK A01 T01521020  RH  031%=      5-min Rain = 0
KMC5 151924Z 19015KT 15/M02 A3024 RMK A01 T01531017  RH  031%=      5-min Rain = 0
KMC5 151925Z 19016KT 16/M02 A3024 RMK A01 T01561019  RH  030%=      5-min Rain = 0
KMC5 151926Z 19016KT 16/M02 A3024 RMK A01 T01571021  RH  029%=      5-min Rain = 0
KMC5 151927Z 19018KT 16/M02 A3023 RMK A01 T01571021  RH  029%=      5-min Rain = 0
KMC5 151928Z 19017G22KT 16/M02 A3024 RMK A01 T01561022  RH  029%=      5-min Rain = 0
KMC5 151929Z 20016KT 16/M02 A3024 RMK A01 T01561022  RH  029%=      5-min Rain = 0
KMC5 151930Z 20020KT 16/M02 A3023 RMK A01 T01571022  RH  029%=      5-min Rain = 0
KMC5 151931Z 19021KT 16/M02 A3023 RMK A01 T01551023  RH  029%=      5-min Rain = 0
KMC5 151932Z 18020KT 15/M03 A3023 RMK A01 T01541025  RH  029%=      5-min Rain = 0
KMC5 151933Z 19017KT 15/M02 A3023 RMK A01 T01541024  RH  029%=      5-min Rain = 0
KMC5 151934Z 19019KT 15/M03 A3023 RMK A01 T01541025  RH  029%=      5-min Rain = 0
KMC5 151935Z 19018KT 15/M02 A3023 RMK A01 T01541024  RH  029%=      5-min Rain = 0
KMC5 151936Z 19021G26KT 16/M02 A3023 RMK A01 T01551024  RH  029%=      5-min Rain = 0
KMC5 151937Z 19020KT 16/M03 A3023 RMK A01 T01551026  RH  029%=      5-min Rain = 0
KMC5 151938Z 19018KT 16/M03 A3023 RMK A01 T01551025  RH  029%=      5-min Rain = 0
KMC5 151939Z 20016G21KT 16/M02 A3023 RMK A01 T01571023  RH  029%=      5-min Rain = 0
KMC5 151940Z 19017G23KT 16/M02 A3023 RMK A01 T01581024  RH  029%=      5-min Rain = 0
KMC5 151941Z 19021KT 16/M03 A3023 RMK A01 T01581026  RH  028%=      5-min Rain = 0
KMC5 151942Z 18020KT 16/M03 A3023 RMK A01 T01571027  RH  028%=      5-min Rain = 0
KMC5 151943Z 19021G27KT 16/M03 A3023 RMK A01 T01561028  RH  028%=      5-min Rain = 0
KMC5 151944Z 19017KT 16/M03 A3023 RMK A01 T01571028  RH  028%=      5-min Rain = 0
KMC5 151945Z 19016G22KT 16/M03 A3023 RMK A01 T01581028  RH  028%=      5-min Rain = 0
KMC5 151946Z 19016KT 16/M03 A3022 RMK A01 T01591029  RH  027%=      5-min Rain = 0
KMC5 151947Z 19014KT 16/M03 A3023 RMK A01 T01591027  RH  028%=      5-min Rain = 0
KMC5 151948Z 20017G22KT 16/M03 A3022 RMK A01 T01621026  RH  028%=      5-min Rain = 0
KMC5 151949Z 19016KT 16/M03 A3022 RMK A01 T01631026  RH  027%=      5-min Rain = 0
KMC5 151950Z 19018G24KT 17/M03 A3022 RMK A01 T01651027  RH  027%=      5-min Rain = 0
KMC5 151951Z 19019G24KT 17/M03 A3022 RMK A01 T01661031  RH  026%=      5-min Rain = 0
KMC5 151952Z 19019KT 16/M03 A3022 RMK A01 T01641034  RH  025%=      5-min Rain = 0
KMC5 151953Z 20017KT 16/M04 A3022 RMK A01 T01611035  RH  026%=      5-min Rain = 0
KMC5 151954Z 20016KT 16/M03 A3022 RMK A01 T01611034  RH  026%=      5-min Rain = 0
KMC5 151955Z 20016KT 16/M03 A3022 RMK A01 T01611033  RH  026%=      5-min Rain = 0
KMC5 151956Z 20019KT 16/M03 A3022 RMK A01 T01631033  RH  026%=      5-min Rain = 0
KMC5 151957Z 19020KT 16/M04 A3022 RMK A01 T01611036  RH  026%=      5-min Rain = 0
KMC5 151958Z 19019KT 16/M03 A3022 RMK A01 T01601034  RH  026%=      5-min Rain = 0
KMC5 151959Z 18022KT 16/M03 A3022 RMK A01 T01621034  RH  026%=      5-min Rain = 0
KMC5 152000Z 18019KT 16/M04 A3022 RMK A01 T01631035  RH  025%=      5-min Rain = 0
KMC5 152001Z 19021KT 16/M03 A3022 RMK A01 T01631034  RH  026%=      5-min Rain = 0
KMC5 152002Z 20020KT 16/M04 A3022 RMK A01 T01631036  RH  025%=      5-min Rain = 0
KMC5 152003Z 19018KT 16/M04 A3022 RMK A01 T01621035  RH  026%=      5-min Rain = 0
KMC5 152004Z 19019KT 16/M04 A3022 RMK A01 T01631035  RH  026%=      5-min Rain = 0
KMC5 152005Z 19017G22KT 16/M03 A3022 RMK A01 T01641034  RH  025%=      5-min Rain = 0
KMC5 152006Z 19022KT 17/M04 A3022 RMK A01 T01651035  RH  025%=      5-min Rain = 0
KMC5 152007Z 20017G23KT 16/M04 A3022 RMK A01 T01641036  RH  025%=      5-min Rain = 0
KMC5 152008Z 20014KT 17/M03 A3022 RMK A01 T01671032  RH  025%=      5-min Rain = 0
KMC5 152009Z 19017G23KT 17/M03 A3022 RMK A01 T01721031  RH  025%=      5-min Rain = 0
KMC5 152010Z 20021KT 17/M04 A3022 RMK A01 T01701035  RH  024%=      5-min Rain = 0
KMC5 152011Z 19019KT 17/M04 A3022 RMK A01 T01651037  RH  025%=      5-min Rain = 0
KMC5 152012Z 18016KT 16/M04 A3022 RMK A01 T01631035  RH  026%=      5-min Rain = 0
KMC5 152013Z 19016KT 16/M03 A3021 RMK A01 T01641034  RH  025%=      5-min Rain = 0
KMC5 152014Z 19022KT 17/M03 A3021 RMK A01 T01671032  RH  025%=      5-min Rain = 0
KMC5 152015Z 20021KT 17/M04 A3021 RMK A01 T01661035  RH  025%=      5-min Rain = 0
KMC5 152016Z 21018KT 17/M04 A3021 RMK A01 T01651035  RH  025%=      5-min Rain = 0
KMC5 152017Z 19021KT 16/M03 A3021 RMK A01 T01641034  RH  025%=      5-min Rain = 0
KMC5 152018Z 18018KT 16/M03 A3021 RMK A01 T01641034  RH  026%=      5-min Rain = 0
KMC5 152019Z 20019KT 16/M03 A3021 RMK A01 T01641034  RH  025%=      5-min Rain = 0
KMC5 152020Z 19023KT 17/M04 A3021 RMK A01 T01651035  RH  025%=      5-min Rain = 0
KMC5 152021Z 20023KT 17/M04 A3021 RMK A01 T01651035  RH  025%=      5-min Rain = 0
KMC5 152022Z 19022KT 17/M04 A3021 RMK A01 T01651035  RH  025%=      5-min Rain = 0
KMC5 152023Z 20020KT 17/M04 A3021 RMK A01 T01651035  RH  025%=      5-min Rain = 0
KMC5 152024Z 20019KT 16/M04 A3021 RMK A01 T01641035  RH  025%=      5-min Rain = 0
KMC5 152025Z 19015KT 16/M03 A3021 RMK A01 T01641034  RH  026%=      5-min Rain = 0
KMC5 152026Z 19016KT 17/M03 A3021 RMK A01 T01651032  RH  026%=      5-min Rain = 0
KMC5 152027Z 20019G24KT 17/M03 A3021 RMK A01 T01671032  RH  025%=      5-min Rain = 0
KMC5 152028Z 19019KT 17/M03 A3021 RMK A01 T01671034  RH  025%=      5-min Rain = 0
KMC5 152029Z 19020KT 17/M03 A3021 RMK A01 T01671034  RH  025%=      5-min Rain = 0
KMC5 152030Z 20016KT 17/M03 A3021 RMK A01 T01661034  RH  025%=      5-min Rain = 0
KMC5 152031Z 20018G23KT 17/M03 A3021 RMK A01 T01651034  RH  025%=      5-min Rain = 0
KMC5 152032Z 20015G20KT 17/M03 A302 RMK A01 T01671032  RH  025%=      5-min Rain = 0
KMC5 152033Z 20018KT 17/M03 A302 RMK A01 T01701032  RH  025%=      5-min Rain = 0
KMC5 152034Z 19017KT 17/M03 A302 RMK A01 T01701032  RH  025%=      5-min Rain = 0
KMC5 152035Z 19014KT 17/M03 A302 RMK A01 T01701032  RH  025%=      5-min Rain = 0
KMC5 152036Z 19015G20KT 17/M03 A302 RMK A01 T01711031  RH  025%=      5-min Rain = 0
KMC5 152037Z 19016KT 17/M03 A302 RMK A01 T01731032  RH  024%=      5-min Rain = 0
KMC5 152038Z 18018KT 17/M03 A302 RMK A01 T01711033  RH  025%=      5-min Rain = 0
KMC5 152039Z 19018KT 17/M03 A302 RMK A01 T01701034  RH  025%=      5-min Rain = 0
KMC5 152040Z 19018KT 17/M03 A302 RMK A01 T01701034  RH  025%=      5-min Rain = 0
KMC5 152041Z 19019KT 17/M04 A302 RMK A01 T01701035  RH  025%=      5-min Rain = 0
KMC5 152042Z 19019G25KT 17/M04 A302 RMK A01 T01681035  RH  025%=      5-min Rain = 0
KMC5 152043Z 19018KT 17/M03 A302 RMK A01 T01691034  RH  025%=      5-min Rain = 0
KMC5 152044Z 20018KT 17/M03 A302 RMK A01 T01711034  RH  024%=      5-min Rain = 0
KMC5 152045Z 21018G23KT 17/M04 A302 RMK A01 T01721035  RH  024%=      5-min Rain = 0
KMC5 152046Z 21019KT 17/M04 A302 RMK A01 T01711036  RH  024%=      5-min Rain = 0
KMC5 152047Z 21017G22KT 17/M04 A302 RMK A01 T01691036  RH  024%=      5-min Rain = 0
KMC5 152048Z 20014KT 17/M04 A302 RMK A01 T01701036  RH  024%=      5-min Rain = 0
KMC5 152049Z 18016KT 17/M04 A302 RMK A01 T01701036  RH  024%=      5-min Rain = 0
KMC5 152050Z 19017KT 17/M04 A302 RMK A01 T01711035  RH  024%=      5-min Rain = 0
KMC5 152051Z 19016G21KT 17/M04 A302 RMK A01 T01721035  RH  024%=      5-min Rain = 0
KMC5 152052Z 19019KT 17/M03 A302 RMK A01 T01731034  RH  024%=      5-min Rain = 0
KMC5 152053Z 19018KT 17/M03 A302 RMK A01 T01731034  RH  024%=      5-min Rain = 0
KMC5 152054Z 19019KT 17/M04 A302 RMK A01 T01731036  RH  024%=      5-min Rain = 0
KMC5 152055Z 19020KT 17/M04 A302 RMK A01 T01701037  RH  024%=      5-min Rain = 0
KMC5 152056Z 19016KT 17/M04 A302 RMK A01 T01681036  RH  024%=      5-min Rain = 0
KMC5 152057Z 19018KT 17/M04 A302 RMK A01 T01701037  RH  024%=      5-min Rain = 0
KMC5 152058Z 18019KT 17/M04 A3019 RMK A01 T01691037  RH  024%=      5-min Rain = 0
KMC5 152059Z 19019KT 17/M04 A302 RMK A01 T01701036  RH  024%=      5-min Rain = 0
KMC5 152100Z 20019KT 17/M04 A3019 RMK A01 T01721036  RH  024%=      5-min Rain = 0
KMC5 152101Z 20017KT 17/M04 A302 RMK A01 T01711038  RH  024%=      5-min Rain = 0
KMC5 152102Z 20015KT 17/M04 A302 RMK A01 T01711037  RH  024%=      5-min Rain = 0
KMC5 152103Z 20014KT 17/M04 A302 RMK A01 T01731035  RH  024%=      5-min Rain = 0
KMC5 152104Z 20018KT 18/M04 A3019 RMK A01 T01761035  RH  023%=      5-min Rain = 0
KMC5 152105Z 19017KT 17/M04 A3019 RMK A01 T01741037  RH  023%=      5-min Rain = 0
KMC5 152106Z 18018KT 17/M04 A302 RMK A01 T01731036  RH  024%=      5-min Rain = 0
KMC5 152107Z 19016KT 17/M04 A3019 RMK A01 T01721037  RH  024%=      5-min Rain = 0
KMC5 152108Z 19019KT 17/M04 A3019 RMK A01 T01721036  RH  024%=      5-min Rain = 0
KMC5 152109Z 20020KT 17/M04 A3019 RMK A01 T01711038  RH  024%=      5-min Rain = 0
KMC5 152110Z 19016G21KT 17/M04 A3019 RMK A01 T01701037  RH  024%=      5-min Rain = 0
KMC5 152111Z 18019KT 17/M04 A3019 RMK A01 T01721036  RH  024%=      5-min Rain = 0
KMC5 152112Z 18019KT 17/M04 A3019 RMK A01 T01711037  RH  024%=      5-min Rain = 0
KMC5 152113Z 18019KT 17/M04 A3019 RMK A01 T01701037  RH  024%=      5-min Rain = 0
KMC5 152114Z 18018KT 17/M04 A3019 RMK A01 T01701037  RH  024%=      5-min Rain = 0
KMC5 152115Z 19021KT 17/M04 A3019 RMK A01 T01691037  RH  024%=      5-min Rain = 0
KMC5 152116Z 19019G24KT 17/M04 A3019 RMK A01 T01701037  RH  024%=      5-min Rain = 0
KMC5 152117Z 19020KT 17/M04 A3019 RMK A01 T01701037  RH  024%=      5-min Rain = 0
KMC5 152118Z 19018KT 17/M04 A3019 RMK A01 T01701037  RH  024%=      5-min Rain = 0
KMC5 152119Z 20016KT 17/M04 A3019 RMK A01 T01691038  RH  024%=      5-min Rain = 0
KMC5 152120Z 20016KT 17/M04 A3019 RMK A01 T01691037  RH  024%=      5-min Rain = 0
KMC5 152121Z 19015KT 17/M04 A3019 RMK A01 T01701037  RH  024%=      5-min Rain = 0
KMC5 152122Z 20016KT 17/M04 A3019 RMK A01 T01701037  RH  024%=      5-min Rain = 0
KMC5 152123Z 19013KT 17/M04 A3019 RMK A01 T01711037  RH  024%=      5-min Rain = 0
KMC5 152124Z 20014KT 17/M04 A3019 RMK A01 T01711036  RH  024%=      5-min Rain = 0
KMC5 152125Z 19017KT 17/M04 A3019 RMK A01 T01701037  RH  024%=      5-min Rain = 0
KMC5 152126Z 19016KT 17/M04 A3019 RMK A01 T01681037  RH  024%=      5-min Rain = 0
KMC5 152127Z 20015KT 17/M04 A3019 RMK A01 T01681037  RH  024%=      5-min Rain = 0
KMC5 152128Z 21017KT 17/M04 A3019 RMK A01 T01681036  RH  024%=      5-min Rain = 0
KMC5 152129Z 21015KT 17/M04 A3019 RMK A01 T01711035  RH  024%=      5-min Rain = 0
KMC5 152130Z 21015KT 17/M04 A3019 RMK A01 T01701036  RH  024%=      5-min Rain = 0
KMC5 152131Z 20015KT 17/M04 A3019 RMK A01 T01681037  RH  024%=      5-min Rain = 0
KMC5 152132Z 19013KT 17/M04 A3019 RMK A01 T01681036  RH  025%=      5-min Rain = 0
KMC5 152133Z 20013KT 17/M04 A3019 RMK A01 T01701035  RH  024%=      5-min Rain = 0
KMC5 152134Z 19013KT 17/M04 A3019 RMK A01 T01711035  RH  024%=      5-min Rain = 0
KMC5 152135Z 20017KT 17/M04 A3019 RMK A01 T01711036  RH  024%=      5-min Rain = 0
KMC5 152136Z 20017KT 17/M04 A3019 RMK A01 T01691036  RH  024%=      5-min Rain = 0
KMC5 152137Z 20016G21KT 17/M04 A3019 RMK A01 T01681035  RH  025%=      5-min Rain = 0
KMC5 152138Z 19017KT 17/M04 A3019 RMK A01 T01671036  RH  025%=      5-min Rain = 0
KMC5 152139Z 19018KT 17/M04 A3019 RMK A01 T01671036  RH  025%=      5-min Rain = 0
KMC5 152140Z 18018KT 17/M04 A3019 RMK A01 T01691035  RH  025%=      5-min Rain = 0
KMC5 152141Z 19019KT 17/M04 A3019 RMK A01 T01691035  RH  024%=      5-min Rain = 0
KMC5 152142Z 19018KT 17/M04 A3019 RMK A01 T01681037  RH  024%=      5-min Rain = 0
KMC5 152143Z 19015KT 17/M04 A3019 RMK A01 T01681036  RH  025%=      5-min Rain = 0
KMC5 152144Z 18019G24KT 17/M03 A3018 RMK A01 T01701034  RH  025%=      5-min Rain = 0
KMC5 152145Z 18020KT 17/M04 A3018 RMK A01 T01701036  RH  024%=      5-min Rain = 0
KMC5 152146Z 18017KT 17/M04 A3018 RMK A01 T01691036  RH  024%=      5-min Rain = 0
KMC5 152147Z 18016KT 17/M04 A3018 RMK A01 T01691036  RH  024%=      5-min Rain = 0
KMC5 152148Z 18018KT 17/M04 A3018 RMK A01 T01701035  RH  024%=      5-min Rain = 0
KMC5 152149Z 19018KT 17/M04 A3018 RMK A01 T01701035  RH  024%=      5-min Rain = 0
KMC5 152150Z 19021KT 17/M04 A3018 RMK A01 T01691035  RH  025%=      5-min Rain = 0
KMC5 152151Z 19019KT 17/M04 A3018 RMK A01 T01691035  RH  025%=      5-min Rain = 0
KMC5 152152Z 17017KT 17/M04 A3018 RMK A01 T01681036  RH  025%=      5-min Rain = 0
KMC5 152153Z 18017KT 17/M04 A3018 RMK A01 T01681035  RH  025%=      5-min Rain = 0
KMC5 152154Z 19019KT 17/M04 A3018 RMK A01 T01671036  RH  025%=      5-min Rain = 0
KMC5 152155Z 18018KT 17/M04 A3018 RMK A01 T01671035  RH  025%=      5-min Rain = 0
KMC5 152156Z 19017KT 17/M03 A3018 RMK A01 T01681034  RH  025%=      5-min Rain = 0
KMC5 152157Z 18018KT 17/M03 A3018 RMK A01 T01691034  RH  025%=      5-min Rain = 0
KMC5 152158Z 18017KT 17/M03 A3018 RMK A01 T01691034  RH  025%=      5-min Rain = 0
KMC5 152159Z 19021KT 17/M03 A3018 RMK A01 T01691034  RH  025%=      5-min Rain = 0
KMC5 152200Z 19021KT 17/M04 A3018 RMK A01 T01681035  RH  025%=      5-min Rain = 0
KMC5 152201Z 19022KT 17/M04 A3018 RMK A01 T01671035  RH  025%=      5-min Rain = 0
KMC5 152202Z 20021KT 17/M04 A3018 RMK A01 T01671035  RH  025%=      5-min Rain = 0
KMC5 152203Z 20017KT 17/M04 A3018 RMK A01 T01671035  RH  025%=      5-min Rain = 0
KMC5 152204Z 21017KT 17/M03 A3018 RMK A01 T01671034  RH  025%=      5-min Rain = 0
KMC5 152205Z 21016KT 17/M03 A3018 RMK A01 T01671034  RH  025%=      5-min Rain = 0
KMC5 152206Z 20018KT 17/M03 A3018 RMK A01 T01671034  RH  025%=      5-min Rain = 0
KMC5 152207Z 19015KT 17/M03 A3018 RMK A01 T01671034  RH  025%=      5-min Rain = 0
KMC5 152208Z 18018KT 17/M03 A3018 RMK A01 T01671033  RH  025%=      5-min Rain = 0
KMC5 152209Z 19016KT 17/M04 A3018 RMK A01 T01651035  RH  025%=      5-min Rain = 0
KMC5 152210Z 19017KT 16/M04 A3018 RMK A01 T01641035  RH  025%=      5-min Rain = 0
KMC5 152211Z 19016KT 16/M04 A3018 RMK A01 T01631035  RH  025%=      5-min Rain = 0
KMC5 152212Z 19016KT 16/M03 A3018 RMK A01 T01631034  RH  026%=      5-min Rain = 0
KMC5 152213Z 18017KT 16/M03 A3018 RMK A01 T01631034  RH  026%=      5-min Rain = 0
KMC5 152214Z 19014KT 16/M03 A3018 RMK A01 T01631034  RH  026%=      5-min Rain = 0
KMC5 152215Z 19014KT 16/M03 A3018 RMK A01 T01631034  RH  026%=      5-min Rain = 0
KMC5 152216Z 18015KT 16/M03 A3018 RMK A01 T01631034  RH  026%=      5-min Rain = 0
KMC5 152217Z 19015KT 16/M03 A3018 RMK A01 T01631034  RH  026%=      5-min Rain = 0
KMC5 152218Z 19015KT 16/M03 A3018 RMK A01 T01631034  RH  026%=      5-min Rain = 0
KMC5 152219Z 19013KT 16/M03 A3018 RMK A01 T01631034  RH  026%=      5-min Rain = 0
KMC5 152220Z 19013KT 16/M03 A3018 RMK A01 T01631033  RH  026%=      5-min Rain = 0
KMC5 152221Z 19015G20KT 16/M03 A3018 RMK A01 T01621033  RH  026%=      5-min Rain = 0
KMC5 152222Z 19017KT 16/M03 A3018 RMK A01 T01621034  RH  026%=      5-min Rain = 0
KMC5 152223Z 19015KT 16/M03 A3018 RMK A01 T01621034  RH  026%=      5-min Rain = 0
KMC5 152224Z 19015KT 16/M03 A3018 RMK A01 T01611034  RH  026%=      5-min Rain = 0
KMC5 152225Z 19017KT 16/M03 A3018 RMK A01 T01611034  RH  026%=      5-min Rain = 0
KMC5 152226Z 19017KT 16/M04 A3018 RMK A01 T01601035  RH  026%=      5-min Rain = 0
KMC5 152227Z 19015KT 16/M04 A3018 RMK A01 T01591035  RH  026%=      5-min Rain = 0
KMC5 152228Z 18015KT 16/M04 A3018 RMK A01 T01581035  RH  026%=      5-min Rain = 0
KMC5 152229Z 18014KT 16/M03 A3018 RMK A01 T01581034  RH  026%=      5-min Rain = 0
KMC5 152230Z 18017KT 16/M03 A3018 RMK A01 T01581034  RH  026%=      5-min Rain = 0
KMC5 152231Z 19015KT 16/M03 A3018 RMK A01 T01591034  RH  026%=      5-min Rain = 0
KMC5 152232Z 19016KT 16/M03 A3018 RMK A01 T01591034  RH  026%=      5-min Rain = 0
KMC5 152233Z 18017KT 16/M04 A3017 RMK A01 T01591035  RH  026%=      5-min Rain = 0
KMC5 152234Z 19015KT 16/M04 A3017 RMK A01 T01591035  RH  026%=      5-min Rain = 0
KMC5 152235Z 19015KT 16/M04 A3017 RMK A01 T01581035  RH  026%=      5-min Rain = 0
KMC5 152236Z 19017KT 16/M04 A3017 RMK A01 T01581035  RH  026%=      5-min Rain = 0
KMC5 152237Z 19016KT 16/M04 A3017 RMK A01 T01571035  RH  026%=      5-min Rain = 0
KMC5 152238Z 18016KT 16/M04 A3017 RMK A01 T01571035  RH  026%=      5-min Rain = 0
KMC5 152239Z 18014KT 16/M04 A3018 RMK A01 T01571035  RH  026%=      5-min Rain = 0
KMC5 152240Z 19017KT 16/M04 A3017 RMK A01 T01561035  RH  027%=      5-min Rain = 0
KMC5 152241Z 19016KT 16/M04 A3017 RMK A01 T01561035  RH  027%=      5-min Rain = 0
KMC5 152242Z 19014KT 16/M04 A3018 RMK A01 T01561035  RH  027%=      5-min Rain = 0
KMC5 152243Z 19013KT 16/M04 A3018 RMK A01 T01561035  RH  027%=      5-min Rain = 0
KMC5 152244Z 19013KT 16/M03 A3018 RMK A01 T01561034  RH  027%=      5-min Rain = 0
KMC5 152245Z 19017KT 16/M03 A3017 RMK A01 T01551034  RH  027%=      5-min Rain = 0
KMC5 152246Z 19016KT 16/M04 A3017 RMK A01 T01551035  RH  027%=      5-min Rain = 0
KMC5 152247Z 19014KT 16/M04 A3017 RMK A01 T01551035  RH  027%=      5-min Rain = 0
KMC5 152248Z 19016KT 16/M04 A3017 RMK A01 T01551035  RH  027%=      5-min Rain = 0
KMC5 152249Z 19015KT 16/M04 A3017 RMK A01 T01551035  RH  027%=      5-min Rain = 0
KMC5 152250Z 19013G18KT 16/M03 A3018 RMK A01 T01551034  RH  027%=      5-min Rain = 0
KMC5 152251Z 18014KT 15/M04 A3018 RMK A01 T01541035  RH  027%=      5-min Rain = 0
KMC5 152252Z 18015KT 15/M04 A3018 RMK A01 T01531035  RH  027%=      5-min Rain = 0
KMC5 152253Z 19016KT 15/M04 A3018 RMK A01 T01531035  RH  027%=      5-min Rain = 0
KMC5 152254Z 19014KT 15/M04 A3018 RMK A01 T01521035  RH  027%=      5-min Rain = 0
KMC5 152255Z 19013KT 15/M04 A3018 RMK A01 T01511035  RH  028%=      5-min Rain = 0
KMC5 152256Z 19016G22KT 15/M04 A3018 RMK A01 T01501035  RH  028%=      5-min Rain = 0
KMC5 152257Z 19018KT 15/M04 A3017 RMK A01 T01501035  RH  028%=      5-min Rain = 0
KMC5 152258Z 19016KT 15/M04 A3017 RMK A01 T01511035  RH  027%=      5-min Rain = 0
KMC5 152259Z 19015KT 15/M04 A3017 RMK A01 T01511035  RH  027%=      5-min Rain = 0
KMC5 152300Z 19012KT 15/M04 A3018 RMK A01 T01511035  RH  028%=      5-min Rain = 0
KMC5 152301Z 19013KT 15/M04 A3018 RMK A01 T01491035  RH  028%=      5-min Rain = 0
KMC5 152302Z 19012KT 15/M04 A3018 RMK A01 T01491035  RH  028%=      5-min Rain = 0
KMC5 152303Z 19014KT 15/M04 A3018 RMK A01 T01481035  RH  028%=      5-min Rain = 0
KMC5 152304Z 19013KT 15/M04 A3018 RMK A01 T01481035  RH  028%=      5-min Rain = 0
KMC5 152305Z 18013KT 15/M04 A3018 RMK A01 T01491035  RH  028%=      5-min Rain = 0
KMC5 152306Z 19013KT 15/M04 A3018 RMK A01 T01481035  RH  028%=      5-min Rain = 0
KMC5 152307Z 19014KT 15/M03 A3018 RMK A01 T01481034  RH  028%=      5-min Rain = 0
KMC5 152308Z 18016KT 15/M03 A3017 RMK A01 T01481034  RH  028%=      5-min Rain = 0
KMC5 152309Z 19016KT 15/M04 A3017 RMK A01 T01481035  RH  028%=      5-min Rain = 0
KMC5 152310Z 19015KT 15/M04 A3017 RMK A01 T01481035  RH  028%=      5-min Rain = 0
KMC5 152311Z 20013KT 15/M03 A3017 RMK A01 T01481034  RH  028%=      5-min Rain = 0
KMC5 152312Z 20016KT 15/M03 A3017 RMK A01 T01481034  RH  028%=      5-min Rain = 0
KMC5 152313Z 19013KT 15/M03 A3017 RMK A01 T01481034  RH  028%=      5-min Rain = 0
KMC5 152314Z 19012KT 15/M03 A3017 RMK A01 T01481034  RH  028%=      5-min Rain = 0
KMC5 152315Z 19013KT 15/M03 A3017 RMK A01 T01471034  RH  028%=      5-min Rain = 0
KMC5 152316Z 18014KT 15/M03 A3017 RMK A01 T01461034  RH  029%=      5-min Rain = 0
KMC5 152317Z 19012KT 15/M03 A3017 RMK A01 T01471034  RH  029%=      5-min Rain = 0
KMC5 152318Z 19013KT 15/M03 A3017 RMK A01 T01461034  RH  029%=      5-min Rain = 0
KMC5 152319Z 18012KT 15/M03 A3017 RMK A01 T01461033  RH  029%=      5-min Rain = 0
KMC5 152320Z 18012KT 15/M03 A3017 RMK A01 T01451034  RH  029%=      5-min Rain = 0
KMC5 152321Z 19011KT 14/M03 A3017 RMK A01 T01441034  RH  029%=      5-min Rain = 0
KMC5 152322Z 18010KT 14/M03 A3017 RMK A01 T01431034  RH  029%=      5-min Rain = 0
KMC5 152323Z 18011KT 14/M03 A3017 RMK A01 T01421034  RH  030%=      5-min Rain = 0
KMC5 152324Z 18011KT 14/M03 A3017 RMK A01 T01411033  RH  030%=      5-min Rain = 0
KMC5 152325Z 18013KT 14/M03 A3017 RMK A01 T01401033  RH  030%=      5-min Rain = 0
KMC5 152326Z 18011KT 14/M03 A3017 RMK A01 T01411033  RH  030%=      5-min Rain = 0
KMC5 152327Z 18011KT 14/M03 A3017 RMK A01 T01411032  RH  030%=      5-min Rain = 0
KMC5 152328Z 19011KT 14/M03 A3017 RMK A01 T01401033  RH  030%=      5-min Rain = 0
KMC5 152329Z 18011KT 14/M03 A3017 RMK A01 T01391033  RH  030%=      5-min Rain = 0
KMC5 152330Z 18011KT 14/M03 A3017 RMK A01 T01381032  RH  031%=      5-min Rain = 0
KMC5 152331Z 18012KT 14/M03 A3017 RMK A01 T01381032  RH  031%=      5-min Rain = 0
KMC5 152332Z 18012KT 14/M03 A3017 RMK A01 T01371032  RH  031%=      5-min Rain = 0
KMC5 152333Z 18011KT 14/M03 A3017 RMK A01 T01361032  RH  031%=      5-min Rain = 0
KMC5 152334Z 18013KT 14/M03 A3017 RMK A01 T01361032  RH  031%=      5-min Rain = 0
KMC5 152335Z 18013KT 14/M03 A3017 RMK A01 T01351032  RH  031%=      5-min Rain = 0
KMC5 152336Z 18014KT 14/M03 A3017 RMK A01 T01361031  RH  031%=      5-min Rain = 0
KMC5 152337Z 18013KT 14/M03 A3017 RMK A01 T01361031  RH  031%=      5-min Rain = 0
KMC5 152338Z 18012KT 14/M03 A3017 RMK A01 T01351031  RH  032%=      5-min Rain = 0
KMC5 152339Z 17012KT 13/M03 A3017 RMK A01 T01331031  RH  032%=      5-min Rain = 0
KMC5 152340Z 18012KT 13/M03 A3017 RMK A01 T01331031  RH  032%=      5-min Rain = 0
KMC5 152341Z 18012KT 13/M03 A3017 RMK A01 T01321031  RH  032%=      5-min Rain = 0
KMC5 152342Z 18011KT 13/M03 A3017 RMK A01 T01321030  RH  032%=      5-min Rain = 0
KMC5 152343Z 18012KT 13/M03 A3017 RMK A01 T01311031  RH  032%=      5-min Rain = 0
KMC5 152344Z 18011KT 13/M03 A3017 RMK A01 T01301030  RH  033%=      5-min Rain = 0
KMC5 152345Z 18011KT 13/M03 A3017 RMK A01 T01291030  RH  033%=      5-min Rain = 0
KMC5 152346Z 18012KT 13/M03 A3017 RMK A01 T01291030  RH  033%=      5-min Rain = 0
KMC5 152347Z 18012KT 13/M03 A3017 RMK A01 T01291030  RH  033%=      5-min Rain = 0
KMC5 152348Z 18012KT 13/M03 A3017 RMK A01 T01281030  RH  033%=      5-min Rain = 0
KMC5 152349Z 18012KT 13/M03 A3017 RMK A01 T01271030  RH  033%=      5-min Rain = 0
KMC5 152350Z 18011KT 13/M03 A3017 RMK A01 T01271030  RH  034%=      5-min Rain = 0
KMC5 152351Z 18012KT 13/M03 A3017 RMK A01 T01261030  RH  034%=      5-min Rain = 0
KMC5 152352Z 18013KT 13/M03 A3017 RMK A01 T01251030  RH  034%=      5-min Rain = 0
KMC5 152353Z 18012KT 13/M03 A3017 RMK A01 T01261029  RH  034%=      5-min Rain = 0
KMC5 152354Z 18012KT 13/M03 A3017 RMK A01 T01261029  RH  034%=      5-min Rain = 0
KMC5 152355Z 18012KT 13/M03 A3017 RMK A01 T01261029  RH  034%=      5-min Rain = 0
KMC5 152356Z 18012KT 13/M03 A3017 RMK A01 T01251029  RH  034%=      5-min Rain = 0
KMC5 152357Z 18011KT 12/M03 A3017 RMK A01 T01241029  RH  034%=      5-min Rain = 0
KMC5 152358Z 18012KT 12/M03 A3017 RMK A01 T01241029  RH  034%=      5-min Rain = 0
KMC5 152359Z 18012KT 12/M03 A3017 RMK A01 T01231029  RH  035%=      5-min Rain = 0
KMC5 160000Z 18012KT 12/M03 A3017 RMK A01 T01231029  RH  035%=      5-min Rain = 0
KMC5 160001Z 18012KT 12/M03 A3017 RMK A01 T01231029  RH  035%=      5-min Rain = 0
KMC5 160002Z 18012KT 12/M03 A3017 RMK A01 T01221029  RH  035%=      5-min Rain = 0
KMC5 160003Z 18012KT 12/M03 A3017 RMK A01 T01221029  RH  035%=      5-min Rain = 0
KMC5 160004Z 18012KT 12/M03 A3017 RMK A01 T01231028  RH  035%=      5-min Rain = 0
KMC5 160005Z 18012KT 12/M03 A3017 RMK A01 T01221029  RH  035%=      5-min Rain = 0
KMC5 160006Z 18013KT 12/M03 A3017 RMK A01 T01221029  RH  035%=      5-min Rain = 0
KMC5 160007Z 18013KT 12/M03 A3017 RMK A01 T01221029  RH  035%=      5-min Rain = 0
KMC5 160008Z 18013KT 12/M03 A3017 RMK A01 T01221028  RH  035%=      5-min Rain = 0
KMC5 160009Z 18011KT 12/M03 A3017 RMK A01 T01221028  RH  035%=      5-min Rain = 0
KMC5 160010Z 18012KT 12/M03 A3017 RMK A01 T01211029  RH  035%=      5-min Rain = 0
KMC5 160011Z 17012KT 12/M03 A3017 RMK A01 T01201028  RH  035%=      5-min Rain = 0
KMC5 160012Z 18012KT 12/M03 A3017 RMK A01 T01201028  RH  036%=      5-min Rain = 0
KMC5 160013Z 18012KT 12/M03 A3017 RMK A01 T01201028  RH  036%=      5-min Rain = 0
KMC5 160014Z 18012KT 12/M03 A3017 RMK A01 T01191028  RH  036%=      5-min Rain = 0
KMC5 160015Z 18012KT 12/M03 A3017 RMK A01 T01191028  RH  036%=      5-min Rain = 0
KMC5 160016Z 18011KT 12/M03 A3017 RMK A01 T01191027  RH  036%=      5-min Rain = 0
KMC5 160017Z 18011KT 12/M03 A3017 RMK A01 T01171027  RH  036%=      5-min Rain = 0
KMC5 160018Z 18011KT 12/M03 A3017 RMK A01 T01171027  RH  037%=      5-min Rain = 0
KMC5 160019Z 18011KT 12/M03 A3017 RMK A01 T01161027  RH  037%=      5-min Rain = 0
KMC5 160020Z 18012KT 12/M03 A3017 RMK A01 T01161026  RH  037%=      5-min Rain = 0
KMC5 160021Z 18011KT 12/M03 A3017 RMK A01 T01161026  RH  037%=      5-min Rain = 0
KMC5 160022Z 17012KT 12/M03 A3018 RMK A01 T01161026  RH  037%=      5-min Rain = 0
KMC5 160023Z 18012KT 12/M03 A3018 RMK A01 T01161025  RH  037%=      5-min Rain = 0
KMC5 160024Z 18012KT 12/M03 A3018 RMK A01 T01161026  RH  037%=      5-min Rain = 0
KMC5 160025Z 18012KT 12/M03 A3018 RMK A01 T01161025  RH  037%=      5-min Rain = 0
KMC5 160026Z 18012KT 12/M03 A3018 RMK A01 T01161025  RH  037%=      5-min Rain = 0
KMC5 160027Z 18013KT 12/M03 A3018 RMK A01 T01171025  RH  037%=      5-min Rain = 0
KMC5 160028Z 18013KT 12/M03 A3018 RMK A01 T01171025  RH  037%=      5-min Rain = 0
KMC5 160029Z 18014KT 12/M03 A3018 RMK A01 T01171025  RH  037%=      5-min Rain = 0
KMC5 160030Z 18014KT 12/M03 A3018 RMK A01 T01171025  RH  037%=      5-min Rain = 0
KMC5 160031Z 18014KT 12/M03 A3017 RMK A01 T01181025  RH  037%=      5-min Rain = 0
KMC5 160032Z 18013KT 12/M03 A3018 RMK A01 T01181026  RH  037%=      5-min Rain = 0
KMC5 160033Z 18013KT 12/M03 A3018 RMK A01 T01171026  RH  037%=      5-min Rain = 0
KMC5 160034Z 18012KT 12/M03 A3018 RMK A01 T01171026  RH  037%=      5-min Rain = 0
KMC5 160035Z 18013KT 12/M03 A3018 RMK A01 T01161026  RH  037%=      5-min Rain = 0
KMC5 160036Z 18012KT 12/M03 A3018 RMK A01 T01161025  RH  037%=      5-min Rain = 0
KMC5 160037Z 18012KT 12/M03 A3018 RMK A01 T01151026  RH  037%=      5-min Rain = 0
KMC5 160038Z 18013KT 11/M03 A3018 RMK A01 T01141026  RH  037%=      5-min Rain = 0
KMC5 160039Z 18013KT 11/M03 A3018 RMK A01 T01141025  RH  038%=      5-min Rain = 0
KMC5 160040Z 18012KT 11/M03 A3018 RMK A01 T01141026  RH  038%=      5-min Rain = 0
KMC5 160041Z 18012KT 11/M03 A3018 RMK A01 T01131026  RH  038%=      5-min Rain = 0
KMC5 160042Z 18012KT 11/M03 A3018 RMK A01 T01131025  RH  038%=      5-min Rain = 0
KMC5 160043Z 18012KT 11/M03 A3018 RMK A01 T01121026  RH  038%=      5-min Rain = 0
KMC5 160044Z 18013KT 11/M03 A3018 RMK A01 T01131025  RH  038%=      5-min Rain = 0
KMC5 160045Z 18013KT 11/M03 A3018 RMK A01 T01121026  RH  038%=      5-min Rain = 0
KMC5 160046Z 18011KT 11/M03 A3018 RMK A01 T01121025  RH  038%=      5-min Rain = 0
KMC5 160047Z 18013KT 11/M03 A3018 RMK A01 T01111026  RH  038%=      5-min Rain = 0
KMC5 160048Z 18011KT 11/M03 A3018 RMK A01 T01111026  RH  038%=      5-min Rain = 0
KMC5 160049Z 18012KT 11/M03 A3018 RMK A01 T01101026  RH  038%=      5-min Rain = 0
KMC5 160050Z 18012KT 11/M03 A3018 RMK A01 T01101026  RH  039%=      5-min Rain = 0
KMC5 160051Z 18013KT 11/M03 A3018 RMK A01 T01091026  RH  039%=      5-min Rain = 0
KMC5 160052Z 18013KT 11/M03 A3018 RMK A01 T01091026  RH  039%=      5-min Rain = 0
KMC5 160053Z 18013KT 11/M03 A3018 RMK A01 T01101025  RH  039%=      5-min Rain = 0
KMC5 160054Z 18013KT 11/M03 A3018 RMK A01 T01111025  RH  039%=      5-min Rain = 0
KMC5 160055Z 18013KT 11/M03 A3018 RMK A01 T01121025  RH  038%=      5-min Rain = 0
KMC5 160056Z 18014KT 11/M03 A3018 RMK A01 T01121025  RH  038%=      5-min Rain = 0
KMC5 160057Z 18014KT 11/M03 A3018 RMK A01 T01111026  RH  038%=      5-min Rain = 0
KMC5 160058Z 18012KT 11/M03 A3018 RMK A01 T01121025  RH  038%=      5-min Rain = 0
KMC5 160059Z 18013KT 11/M03 A3018 RMK A01 T01111026  RH  038%=      5-min Rain = 0
KMC5 160100Z 18012KT 11/M03 A3018 RMK A01 T01101026  RH  039%=      5-min Rain = 0
KMC5 160101Z 18012KT 11/M03 A3018 RMK A01 T01091026  RH  039%=      5-min Rain = 0
KMC5 160102Z 18013KT 11/M03 A3017 RMK A01 T01081026  RH  039%=      5-min Rain = 0
KMC5 160103Z 18012KT 11/M03 A3017 RMK A01 T01071026  RH  039%=      5-min Rain = 0
KMC5 160104Z 18013KT 11/M03 A3017 RMK A01 T01071026  RH  039%=      5-min Rain = 0
KMC5 160105Z 18014KT 11/M03 A3017 RMK A01 T01071025  RH  039%=      5-min Rain = 0
KMC5 160106Z 17014KT 11/M03 A3017 RMK A01 T01081025  RH  039%=      5-min Rain = 0
KMC5 160107Z 18014KT 11/M03 A3017 RMK A01 T01091025  RH  039%=      5-min Rain = 0
KMC5 160108Z 18013KT 11/M03 A3017 RMK A01 T01091025  RH  039%=      5-min Rain = 0
KMC5 160109Z 17015KT 11/M03 A3017 RMK A01 T01091025  RH  039%=      5-min Rain = 0
KMC5 160110Z 18014KT 11/M03 A3017 RMK A01 T01091025  RH  039%=      5-min Rain = 0
KMC5 160111Z 18014KT 11/M03 A3017 RMK A01 T01081025  RH  039%=      5-min Rain = 0
KMC5 160112Z 18013KT 11/M03 A3017 RMK A01 T01081025  RH  039%=      5-min Rain = 0
KMC5 160113Z 18014KT 11/M02 A3017 RMK A01 T01081024  RH  039%=      5-min Rain = 0
KMC5 160114Z 18013KT 11/M02 A3017 RMK A01 T01081024  RH  039%=      5-min Rain = 0
KMC5 160115Z 18013KT 11/M02 A3018 RMK A01 T01071024  RH  040%=      5-min Rain = 0
KMC5 160116Z 18014KT 11/M03 A3018 RMK A01 T01061025  RH  040%=      5-min Rain = 0
KMC5 160117Z 18013KT 11/M02 A3018 RMK A01 T01061024  RH  040%=      5-min Rain = 0
KMC5 160118Z 18013KT 11/M02 A3018 RMK A01 T01061024  RH  040%=      5-min Rain = 0
KMC5 160119Z 18014KT 11/M02 A3018 RMK A01 T01061024  RH  040%=      5-min Rain = 0
KMC5 160120Z 18013KT 11/M02 A3018 RMK A01 T01071024  RH  040%=      5-min Rain = 0
KMC5 160121Z 18013KT 11/M02 A3018 RMK A01 T01061024  RH  040%=      5-min Rain = 0
KMC5 160122Z 18012KT 11/M02 A3018 RMK A01 T01061024  RH  040%=      5-min Rain = 0
KMC5 160123Z 18012KT 11/M02 A3018 RMK A01 T01051024  RH  040%=      5-min Rain = 0
KMC5 160124Z 18012KT 11/M02 A3018 RMK A01 T01051023  RH  040%=      5-min Rain = 0
KMC5 160125Z 18012KT 10/M02 A3018 RMK A01 T01041024  RH  041%=      5-min Rain = 0
KMC5 160126Z 18013KT 10/M02 A3018 RMK A01 T01041024  RH  041%=      5-min Rain = 0
KMC5 160127Z 17013KT 10/M02 A3018 RMK A01 T01041024  RH  041%=      5-min Rain = 0
KMC5 160128Z 17013KT 10/M02 A3018 RMK A01 T01041023  RH  041%=      5-min Rain = 0
KMC5 160129Z 18013KT 10/M02 A3018 RMK A01 T01041024  RH  041%=      5-min Rain = 0
KMC5 160130Z 18013KT 10/M02 A3018 RMK A01 T01041024  RH  041%=      5-min Rain = 0
KMC5 160131Z 18012KT 10/M02 A3018 RMK A01 T01041024  RH  041%=      5-min Rain = 0
KMC5 160132Z 18014KT 10/M02 A3018 RMK A01 T01031024  RH  041%=      5-min Rain = 0
KMC5 160133Z 18013KT 10/M02 A3018 RMK A01 T01031024  RH  041%=      5-min Rain = 0
KMC5 160134Z 18013KT 10/M02 A3018 RMK A01 T01041024  RH  041%=      5-min Rain = 0
KMC5 160135Z 18013KT 10/M02 A3018 RMK A01 T01031024  RH  041%=      5-min Rain = 0
KMC5 160136Z 18013KT 10/M02 A3018 RMK A01 T01031024  RH  041%=      5-min Rain = 0
KMC5 160137Z 18015KT 10/M02 A3018 RMK A01 T01031024  RH  041%=      5-min Rain = 0
KMC5 160138Z 18013KT 10/M02 A3018 RMK A01 T01041024  RH  041%=      5-min Rain = 0
KMC5 160139Z 18012KT 10/M02 A3018 RMK A01 T01031024  RH  041%=      5-min Rain = 0
KMC5 160140Z 18013KT 10/M02 A3018 RMK A01 T01031024  RH  041%=      5-min Rain = 0
KMC5 160141Z 18013KT 10/M02 A3018 RMK A01 T01021024  RH  041%=      5-min Rain = 0
KMC5 160142Z 18013KT 10/M02 A3018 RMK A01 T01021024  RH  041%=      5-min Rain = 0
KMC5 160143Z 18012KT 10/M02 A3018 RMK A01 T01021024  RH  041%=      5-min Rain = 0
KMC5 160144Z 18014KT 10/M02 A3018 RMK A01 T01011024  RH  041%=      5-min Rain = 0
KMC5 160145Z 18014KT 10/M02 A3018 RMK A01 T01021024  RH  041%=      5-min Rain = 0
KMC5 160146Z 18013KT 10/M02 A3018 RMK A01 T01031024  RH  041%=      5-min Rain = 0
KMC5 160147Z 18012KT 10/M02 A3018 RMK A01 T01021024  RH  041%=      5-min Rain = 0
KMC5 160148Z 18013KT 10/M02 A3018 RMK A01 T01021024  RH  041%=      5-min Rain = 0
KMC5 160149Z 18014KT 10/M02 A3018 RMK A01 T01021024  RH  041%=      5-min Rain = 0
KMC5 160150Z 18013KT 10/M02 A3018 RMK A01 T01021024  RH  041%=      5-min Rain = 0
KMC5 160151Z 18014KT 10/M02 A3018 RMK A01 T01021024  RH  041%=      5-min Rain = 0
KMC5 160152Z 18013KT 10/M02 A3018 RMK A01 T01021024  RH  041%=      5-min Rain = 0
KMC5 160153Z 18013KT 10/M02 A3018 RMK A01 T01011024  RH  041%=      5-min Rain = 0
KMC5 160154Z 18016KT 10/M02 A3018 RMK A01 T01011024  RH  042%=      5-min Rain = 0
KMC5 160155Z 18015KT 10/M02 A3018 RMK A01 T01011024  RH  042%=      5-min Rain = 0
KMC5 160156Z 18014KT 10/M02 A3018 RMK A01 T01021024  RH  041%=      5-min Rain = 0
KMC5 160157Z 18014KT 10/M02 A3018 RMK A01 T01011024  RH  041%=      5-min Rain = 0
KMC5 160158Z 18015KT 10/M02 A3018 RMK A01 T01011024  RH  042%=      5-min Rain = 0
KMC5 160159Z 18014KT 10/M02 A3018 RMK A01 T01011024  RH  041%=      5-min Rain = 0
KMC5 160200Z 18013KT 10/M02 A3018 RMK A01 T01011024  RH  042%=      5-min Rain = 0
KMC5 160201Z 18015KT 10/M02 A3018 RMK A01 T01001024  RH  042%=      5-min Rain = 0
KMC5 160202Z 18014KT 10/M02 A3018 RMK A01 T01011023  RH  042%=      5-min Rain = 0
KMC5 160203Z 18014KT 10/M02 A3018 RMK A01 T01011024  RH  042%=      5-min Rain = 0
KMC5 160204Z 18015KT 10/M02 A3018 RMK A01 T01001024  RH  042%=      5-min Rain = 0
KMC5 160205Z 18013KT 10/M02 A3018 RMK A01 T01011024  RH  042%=      5-min Rain = 0
KMC5 160206Z 18014KT 10/M02 A3018 RMK A01 T00991024  RH  042%=      5-min Rain = 0
KMC5 160207Z 18015KT 10/M02 A3018 RMK A01 T00991024  RH  042%=      5-min Rain = 0
KMC5 160208Z 18014KT 10/M02 A3018 RMK A01 T00991023  RH  042%=      5-min Rain = 0
KMC5 160209Z 18013KT 10/M02 A3018 RMK A01 T00991023  RH  042%=      5-min Rain = 0
KMC5 160210Z 18014KT 10/M02 A3018 RMK A01 T00991023  RH  042%=      5-min Rain = 0
KMC5 160211Z 18015KT 10/M02 A3018 RMK A01 T00991023  RH  042%=      5-min Rain = 0
KMC5 160212Z 18014KT 10/M02 A3018 RMK A01 T01001023  RH  042%=      5-min Rain = 0
KMC5 160213Z 19014KT 10/M02 A3018 RMK A01 T01001023  RH  042%=      5-min Rain = 0
KMC5 160214Z 18015KT 10/M02 A3018 RMK A01 T01001023  RH  042%=      5-min Rain = 0
KMC5 160215Z 18014KT 10/M02 A3018 RMK A01 T01001023  RH  042%=      5-min Rain = 0
KMC5 160216Z 18014KT 10/M02 A3018 RMK A01 T01001023  RH  042%=      5-min Rain = 0
KMC5 160217Z 18014KT 10/M02 A3018 RMK A01 T00991023  RH  042%=      5-min Rain = 0
KMC5 160218Z 18013KT 10/M02 A3018 RMK A01 T00991023  RH  042%=      5-min Rain = 0
KMC5 160219Z 18014KT 10/M02 A3018 RMK A01 T00981023  RH  043%=      5-min Rain = 0
KMC5 160220Z 18013KT 10/M02 A3018 RMK A01 T00981023  RH  043%=      5-min Rain = 0
KMC5 160221Z 18013KT 10/M02 A3018 RMK A01 T00981023  RH  043%=      5-min Rain = 0
KMC5 160222Z 18014KT 10/M02 A3018 RMK A01 T00971023  RH  043%=      5-min Rain = 0
KMC5 160223Z 18014KT 10/M02 A3018 RMK A01 T00971023  RH  043%=      5-min Rain = 0
KMC5 160224Z 18014KT 10/M02 A3018 RMK A01 T00981023  RH  043%=      5-min Rain = 0
KMC5 160225Z 18013KT 10/M02 A3018 RMK A01 T00971023  RH  043%=      5-min Rain = 0
KMC5 160226Z 18014KT 10/M02 A3018 RMK A01 T00971023  RH  043%=      5-min Rain = 0
KMC5 160227Z 18014KT 10/M02 A3018 RMK A01 T00971023  RH  043%=      5-min Rain = 0
KMC5 160228Z 18015KT 10/M02 A3018 RMK A01 T00971022  RH  043%=      5-min Rain = 0
KMC5 160229Z 19014KT 10/M02 A3018 RMK A01 T00971023  RH  043%=      5-min Rain = 0
KMC5 160230Z 18013KT 10/M02 A3018 RMK A01 T00981023  RH  043%=      5-min Rain = 0
KMC5 160231Z 19013KT 10/M02 A3018 RMK A01 T00971023  RH  043%=      5-min Rain = 0
KMC5 160232Z 19014KT 10/M02 A3018 RMK A01 T00961023  RH  043%=      5-min Rain = 0
KMC5 160233Z 18014KT 10/M02 A3018 RMK A01 T00961023  RH  043%=      5-min Rain = 0
KMC5 160234Z 18013KT 10/M02 A3018 RMK A01 T00961023  RH  043%=      5-min Rain = 0
KMC5 160235Z 18014KT 10/M02 A3018 RMK A01 T00961023  RH  043%=      5-min Rain = 0
KMC5 160236Z 18013KT 10/M02 A3018 RMK A01 T00951023  RH  043%=      5-min Rain = 0
KMC5 160237Z 18014KT 09/M02 A3018 RMK A01 T00941023  RH  044%=      5-min Rain = 0
KMC5 160238Z 18014KT 09/M02 A3018 RMK A01 T00941023  RH  044%=      5-min Rain = 0
KMC5 160239Z 18013KT 10/M02 A3018 RMK A01 T00951023  RH  044%=      5-min Rain = 0
KMC5 160240Z 19013KT 10/M02 A3018 RMK A01 T00951023  RH  044%=      5-min Rain = 0
KMC5 160241Z 18014KT 10/M02 A3018 RMK A01 T00951023  RH  044%=      5-min Rain = 0
KMC5 160242Z 19013KT 10/M02 A3018 RMK A01 T00951023  RH  044%=      5-min Rain = 0
KMC5 160243Z 19014KT 09/M02 A3018 RMK A01 T00941023  RH  044%=      5-min Rain = 0
KMC5 160244Z 19014KT 10/M02 A3018 RMK A01 T00951022  RH  044%=      5-min Rain = 0
KMC5 160245Z 19014KT 10/M02 A3019 RMK A01 T00951023  RH  044%=      5-min Rain = 0
KMC5 160246Z 19014KT 09/M02 A3019 RMK A01 T00941023  RH  044%=      5-min Rain = 0
KMC5 160247Z 18013KT 09/M02 A3019 RMK A01 T00931023  RH  044%=      5-min Rain = 0
KMC5 160248Z 19014KT 09/M02 A3018 RMK A01 T00931022  RH  044%=      5-min Rain = 0
KMC5 160249Z 19014KT 09/M02 A3018 RMK A01 T00931022  RH  044%=      5-min Rain = 0
KMC5 160250Z 19013KT 09/M02 A3018 RMK A01 T00931022  RH  044%=      5-min Rain = 0
KMC5 160251Z 19013KT 09/M02 A3018 RMK A01 T00931023  RH  044%=      5-min Rain = 0
KMC5 160252Z 19013KT 09/M02 A3018 RMK A01 T00921022  RH  045%=      5-min Rain = 0
KMC5 160253Z 19013KT 09/M02 A3018 RMK A01 T00921022  RH  045%=      5-min Rain = 0
KMC5 160254Z 19013KT 09/M02 A3018 RMK A01 T00921022  RH  045%=      5-min Rain = 0
KMC5 160255Z 19013KT 09/M02 A3018 RMK A01 T00911022  RH  045%=      5-min Rain = 0
KMC5 160256Z 19014KT 09/M02 A3018 RMK A01 T00911022  RH  045%=      5-min Rain = 0
KMC5 160257Z 19013KT 09/M02 A3018 RMK A01 T00911022  RH  045%=      5-min Rain = 0
KMC5 160258Z 19013KT 09/M02 A3018 RMK A01 T00911022  RH  045%=      5-min Rain = 0
KMC5 160259Z 19013KT 09/M02 A3018 RMK A01 T00901022  RH  045%=      5-min Rain = 0
KMC5 160300Z 19013KT 09/M02 A3018 RMK A01 T00901022  RH  045%=      5-min Rain = 0
KMC5 160301Z 19013KT 09/M02 A3018 RMK A01 T00911022  RH  045%=      5-min Rain = 0
KMC5 160302Z 19013KT 09/M02 A3018 RMK A01 T00911022  RH  045%=      5-min Rain = 0
KMC5 160303Z 19013KT 09/M02 A3018 RMK A01 T00901022  RH  045%=      5-min Rain = 0
KMC5 160304Z 19013KT 09/M02 A3018 RMK A01 T00901022  RH  045%=      5-min Rain = 0
KMC5 160305Z 19013KT 09/M02 A3018 RMK A01 T00911021  RH  045%=      5-min Rain = 0
KMC5 160306Z 19012KT 09/M02 A3018 RMK A01 T00901022  RH  045%=      5-min Rain = 0
KMC5 160307Z 19013KT 09/M02 A3018 RMK A01 T00891022  RH  046%=      5-min Rain = 0
KMC5 160308Z 19013KT 09/M02 A3018 RMK A01 T00891022  RH  046%=      5-min Rain = 0
KMC5 160309Z 19012KT 09/M02 A3018 RMK A01 T00891021  RH  046%=      5-min Rain = 0
KMC5 160310Z 19013KT 09/M02 A3018 RMK A01 T00891021  RH  046%=      5-min Rain = 0
KMC5 160311Z 19013KT 09/M02 A3018 RMK A01 T00891021  RH  046%=      5-min Rain = 0
KMC5 160312Z 19013KT 09/M02 A3018 RMK A01 T00901021  RH  046%=      5-min Rain = 0
KMC5 160313Z 19013KT 09/M02 A3018 RMK A01 T00901022  RH  046%=      5-min Rain = 0
KMC5 160314Z 19014KT 09/M02 A3018 RMK A01 T00901021  RH  046%=      5-min Rain = 0
KMC5 160315Z 19013KT 09/M02 A3018 RMK A01 T00901021  RH  046%=      5-min Rain = 0
KMC5 160316Z 19013KT 09/M02 A3018 RMK A01 T00901021  RH  045%=      5-min Rain = 0
KMC5 160317Z 19013KT 09/M02 A3018 RMK A01 T00901021  RH  046%=      5-min Rain = 0
KMC5 160318Z 19013KT 09/M02 A3018 RMK A01 T00891022  RH  046%=      5-min Rain = 0
KMC5 160319Z 19013KT 09/M02 A3018 RMK A01 T00901021  RH  046%=      5-min Rain = 0
KMC5 160320Z 19013KT 09/M02 A3018 RMK A01 T00901021  RH  046%=      5-min Rain = 0
KMC5 160321Z 19014KT 09/M02 A3018 RMK A01 T00901021  RH  046%=      5-min Rain = 0
KMC5 160322Z 19013KT 09/M02 A3018 RMK A01 T00901021  RH  046%=      5-min Rain = 0
KMC5 160323Z 18012KT 09/M02 A3018 RMK A01 T00901021  RH  046%=      5-min Rain = 0
KMC5 160324Z 18012KT 09/M02 A3018 RMK A01 T00891022  RH  046%=      5-min Rain = 0
KMC5 160325Z 19012KT 09/M02 A3018 RMK A01 T00891021  RH  046%=      5-min Rain = 0
KMC5 160326Z 19012KT 09/M02 A3018 RMK A01 T00881022  RH  046%=      5-min Rain = 0
KMC5 160327Z 19012KT 09/M02 A3018 RMK A01 T00871022  RH  046%=      5-min Rain = 0
KMC5 160328Z 19013KT 09/M02 A3018 RMK A01 T00871021  RH  047%=      5-min Rain = 0
KMC5 160329Z 18012KT 09/M02 A3018 RMK A01 T00871022  RH  047%=      5-min Rain = 0
KMC5 160330Z 18012KT 09/M02 A3018 RMK A01 T00861022  RH  047%=      5-min Rain = 0
KMC5 160331Z 18013KT 09/M02 A3018 RMK A01 T00871022  RH  047%=      5-min Rain = 0
KMC5 160332Z 18013KT 09/M02 A3018 RMK A01 T00871021  RH  047%=      5-min Rain = 0
KMC5 160333Z 18012KT 09/M02 A3018 RMK A01 T00871021  RH  047%=      5-min Rain = 0
KMC5 160334Z 19012KT 09/M02 A3018 RMK A01 T00871021  RH  047%=      5-min Rain = 0
KMC5 160335Z 19013KT 09/M02 A3018 RMK A01 T00871021  RH  047%=      5-min Rain = 0
KMC5 160336Z 19013KT 09/M02 A3018 RMK A01 T00871021  RH  047%=      5-min Rain = 0
KMC5 160337Z 18013KT 09/M02 A3018 RMK A01 T00881021  RH  047%=      5-min Rain = 0
KMC5 160338Z 18013KT 09/M02 A3018 RMK A01 T00881021  RH  046%=      5-min Rain = 0
KMC5 160339Z 19012KT 09/M02 A3018 RMK A01 T00891021  RH  046%=      5-min Rain = 0
KMC5 160340Z 19013KT 09/M02 A3018 RMK A01 T00881021  RH  046%=      5-min Rain = 0
KMC5 160341Z 19013KT 09/M02 A3018 RMK A01 T00871021  RH  046%=      5-min Rain = 0
KMC5 160342Z 19013KT 09/M02 A3018 RMK A01 T00871021  RH  047%=      5-min Rain = 0
KMC5 160343Z 19013KT 09/M02 A3018 RMK A01 T00871021  RH  047%=      5-min Rain = 0
KMC5 160344Z 19013KT 09/M02 A3018 RMK A01 T00871021  RH  047%=      5-min Rain = 0
KMC5 160345Z 19012KT 09/M02 A3018 RMK A01 T00861021  RH  047%=      5-min Rain = 0
KMC5 160346Z 18012KT 09/M02 A3018 RMK A01 T00861021  RH  047%=      5-min Rain = 0
KMC5 160347Z 18014KT 09/M02 A3018 RMK A01 T00861021  RH  047%=      5-min Rain = 0
KMC5 160348Z 19012KT 09/M02 A3018 RMK A01 T00871021  RH  047%=      5-min Rain = 0
KMC5 160349Z 19013KT 09/M02 A3018 RMK A01 T00871021  RH  047%=      5-min Rain = 0
KMC5 160350Z 18014KT 09/M02 A3018 RMK A01 T00871021  RH  047%=      5-min Rain = 0
KMC5 160351Z 19012KT 09/M02 A3018 RMK A01 T00861021  RH  047%=      5-min Rain = 0
KMC5 160352Z 19013KT 09/M02 A3018 RMK A01 T00851021  RH  047%=      5-min Rain = 0
KMC5 160353Z 19013KT 09/M02 A3018 RMK A01 T00851021  RH  047%=      5-min Rain = 0
KMC5 160354Z 19013KT 09/M02 A3018 RMK A01 T00861021  RH  047%=      5-min Rain = 0
KMC5 160355Z 19013KT 09/M02 A3018 RMK A01 T00861021  RH  047%=      5-min Rain = 0
KMC5 160356Z 19012KT 09/M02 A3018 RMK A01 T00851021  RH  047%=      5-min Rain = 0
KMC5 160357Z 19013KT 09/M02 A3018 RMK A01 T00851021  RH  047%=      5-min Rain = 0
KMC5 160358Z 19012KT 09/M02 A3018 RMK A01 T00851021  RH  047%=      5-min Rain = 0
KMC5 160359Z 19013KT 08/M02 A3018 RMK A01 T00841021  RH  048%=      5-min Rain = 0
KMC5 160400Z 19013KT 08/M02 A3018 RMK A01 T00831021  RH  048%=      5-min Rain = 0
KMC5 160401Z 19012KT 08/M02 A3018 RMK A01 T00841021  RH  048%=      5-min Rain = 0
KMC5 160402Z 19013KT 08/M02 A3018 RMK A01 T00841021  RH  048%=      5-min Rain = 0
KMC5 160403Z 19014KT 08/M02 A3018 RMK A01 T00831021  RH  048%=      5-min Rain = 0
KMC5 160404Z 19013KT 08/M02 A3018 RMK A01 T00841021  RH  048%=      5-min Rain = 0
KMC5 160405Z 19012KT 08/M02 A3018 RMK A01 T00841021  RH  048%=      5-min Rain = 0
KMC5 160406Z 19013KT 08/M02 A3018 RMK A01 T00841021  RH  048%=      5-min Rain = 0
KMC5 160407Z 18013KT 08/M02 A3018 RMK A01 T00831021  RH  048%=      5-min Rain = 0
KMC5 160408Z 19012KT 08/M02 A3018 RMK A01 T00841020  RH  048%=      5-min Rain = 0
KMC5 160409Z 19014KT 08/M02 A3018 RMK A01 T00841021  RH  048%=      5-min Rain = 0
KMC5 160410Z 19014KT 09/M02 A3018 RMK A01 T00851020  RH  047%=      5-min Rain = 0
KMC5 160411Z 19013KT 09/M02 A3018 RMK A01 T00861020  RH  047%=      5-min Rain = 0
KMC5 160412Z 19013KT 09/M02 A3018 RMK A01 T00861020  RH  047%=      5-min Rain = 0
KMC5 160413Z 19012KT 09/M02 A3018 RMK A01 T00861021  RH  047%=      5-min Rain = 0
KMC5 160414Z 19013KT 09/M02 A3018 RMK A01 T00851021  RH  047%=      5-min Rain = 0
KMC5 160415Z 18013KT 09/M02 A3018 RMK A01 T00851021  RH  047%=      5-min Rain = 0
KMC5 160416Z 19013KT 09/M02 A3018 RMK A01 T00851021  RH  047%=      5-min Rain = 0
KMC5 160417Z 19013KT 09/M02 A3018 RMK A01 T00851021  RH  047%=      5-min Rain = 0
KMC5 160418Z 19013KT 09/M02 A3018 RMK A01 T00851021  RH  047%=      5-min Rain = 0
KMC5 160419Z 19012KT 08/M02 A3018 RMK A01 T00841021  RH  048%=      5-min Rain = 0
KMC5 160420Z 19014KT 08/M02 A3017 RMK A01 T00831021  RH  048%=      5-min Rain = 0
KMC5 160421Z 19014KT 08/M02 A3017 RMK A01 T00831021  RH  048%=      5-min Rain = 0
KMC5 160422Z 19013KT 08/M02 A3017 RMK A01 T00841021  RH  048%=      5-min Rain = 0
KMC5 160423Z 19014KT 08/M02 A3017 RMK A01 T00841021  RH  048%=      5-min Rain = 0
KMC5 160424Z 19014KT 08/M02 A3017 RMK A01 T00831021  RH  048%=      5-min Rain = 0
KMC5 160425Z 19013KT 08/M02 A3017 RMK A01 T00831021  RH  048%=      5-min Rain = 0
KMC5 160426Z 19013KT 08/M02 A3017 RMK A01 T00821021  RH  048%=      5-min Rain = 0
KMC5 160427Z 19013KT 08/M02 A3017 RMK A01 T00821021  RH  048%=      5-min Rain = 0
KMC5 160428Z 19013KT 08/M02 A3017 RMK A01 T00811021  RH  049%=      5-min Rain = 0
KMC5 160429Z 19013KT 08/M02 A3017 RMK A01 T00811021  RH  049%=      5-min Rain = 0
KMC5 160430Z 19014KT 08/M02 A3017 RMK A01 T00811021  RH  049%=      5-min Rain = 0
KMC5 160431Z 19013KT 08/M02 A3017 RMK A01 T00811021  RH  049%=      5-min Rain = 0
KMC5 160432Z 19013KT 08/M02 A3017 RMK A01 T00821020  RH  049%=      5-min Rain = 0
KMC5 160433Z 19012KT 08/M02 A3017 RMK A01 T00821020  RH  048%=      5-min Rain = 0
KMC5 160434Z 19013KT 08/M02 A3017 RMK A01 T00821020  RH  048%=      5-min Rain = 0
KMC5 160435Z 19013KT 08/M02 A3017 RMK A01 T00821021  RH  048%=      5-min Rain = 0
KMC5 160436Z 19012KT 08/M02 A3017 RMK A01 T00821021  RH  048%=      5-min Rain = 0
KMC5 160437Z 19012KT 08/M02 A3017 RMK A01 T00821020  RH  048%=      5-min Rain = 0
KMC5 160438Z 19012KT 08/M02 A3017 RMK A01 T00821020  RH  048%=      5-min Rain = 0
KMC5 160439Z 19012KT 08/M02 A3017 RMK A01 T00821020  RH  048%=      5-min Rain = 0
KMC5 160440Z 19012KT 08/M02 A3017 RMK A01 T00821020  RH  049%=      5-min Rain = 0
KMC5 160441Z 19012KT 08/M02 A3017 RMK A01 T00811021  RH  049%=      5-min Rain = 0
KMC5 160442Z 19011KT 08/M02 A3017 RMK A01 T00811020  RH  049%=      5-min Rain = 0
KMC5 160443Z 19011KT 08/M02 A3017 RMK A01 T00811020  RH  049%=      5-min Rain = 0
KMC5 160444Z 19012KT 08/M02 A3017 RMK A01 T00811020  RH  049%=      5-min Rain = 0
KMC5 160445Z 19012KT 08/M02 A3017 RMK A01 T00811020  RH  049%=      5-min Rain = 0
KMC5 160446Z 19012KT 08/M02 A3017 RMK A01 T00811020  RH  049%=      5-min Rain = 0
KMC5 160447Z 19011KT 08/M02 A3017 RMK A01 T00811020  RH  049%=      5-min Rain = 0
KMC5 160448Z 19011KT 08/M02 A3017 RMK A01 T00811020  RH  049%=      5-min Rain = 0
KMC5 160449Z 19012KT 08/M02 A3017 RMK A01 T00801020  RH  049%=      5-min Rain = 0
KMC5 160450Z 19012KT 08/M02 A3017 RMK A01 T00801020  RH  049%=      5-min Rain = 0
KMC5 160451Z 19012KT 08/M02 A3017 RMK A01 T00801020  RH  049%=      5-min Rain = 0
KMC5 160452Z 19012KT 08/M02 A3017 RMK A01 T00811020  RH  049%=      5-min Rain = 0
KMC5 160453Z 19011KT 08/M02 A3017 RMK A01 T00811020  RH  049%=      5-min Rain = 0
KMC5 160454Z 19011KT 08/M02 A3017 RMK A01 T00811020  RH  049%=      5-min Rain = 0
KMC5 160455Z 19012KT 08/M02 A3017 RMK A01 T00801020  RH  049%=      5-min Rain = 0
KMC5 160456Z 19012KT 08/M02 A3017 RMK A01 T00791020  RH  050%=      5-min Rain = 0
KMC5 160457Z 19012KT 08/M02 A3017 RMK A01 T00791020  RH  050%=      5-min Rain = 0
KMC5 160458Z 19013KT 08/M02 A3017 RMK A01 T00791020  RH  050%=      5-min Rain = 0
KMC5 160459Z 19013KT 08/M02 A3017 RMK A01 T00791020  RH  050%=      5-min Rain = 0
KMC5 160500Z 19012KT 08/M02 A3017 RMK A01 T00791020  RH  049%=      5-min Rain = 0
KMC5 160501Z 19012KT 08/M02 A3017 RMK A01 T00781020  RH  050%=      5-min Rain = 0
KMC5 160502Z 19012KT 08/M02 A3017 RMK A01 T00771020  RH  050%=      5-min Rain = 0
KMC5 160503Z 19012KT 08/M02 A3017 RMK A01 T00771020  RH  050%=      5-min Rain = 0
KMC5 160504Z 19013KT 08/M02 A3017 RMK A01 T00771020  RH  050%=      5-min Rain = 0
KMC5 160505Z 19013KT 08/M02 A3017 RMK A01 T00781020  RH  050%=      5-min Rain = 0
KMC5 160506Z 19012KT 08/M02 A3017 RMK A01 T00791019  RH  050%=      5-min Rain = 0
KMC5 160507Z 19014KT 08/M02 A3017 RMK A01 T00781020  RH  050%=      5-min Rain = 0
KMC5 160508Z 19012KT 08/M02 A3017 RMK A01 T00791020  RH  050%=      5-min Rain = 0
KMC5 160509Z 19013KT 08/M02 A3017 RMK A01 T00781020  RH  050%=      5-min Rain = 0
KMC5 160510Z 19012KT 08/M02 A3017 RMK A01 T00771020  RH  050%=      5-min Rain = 0
KMC5 160511Z 19013KT 08/M02 A3017 RMK A01 T00771020  RH  050%=      5-min Rain = 0
KMC5 160512Z 19013KT 08/M02 A3016 RMK A01 T00761020  RH  050%=      5-min Rain = 0
KMC5 160513Z 19012KT 08/M02 A3017 RMK A01 T00761020  RH  051%=      5-min Rain = 0
KMC5 160514Z 19013KT 08/M02 A3016 RMK A01 T00751020  RH  051%=      5-min Rain = 0
KMC5 160515Z 19012KT 08/M02 A3016 RMK A01 T00751020  RH  051%=      5-min Rain = 0
KMC5 160516Z 19012KT 08/M02 A3016 RMK A01 T00751020  RH  051%=      5-min Rain = 0
KMC5 160517Z 19012KT 07/M02 A3016 RMK A01 T00741020  RH  051%=      5-min Rain = 0
KMC5 160518Z 19011KT 07/M02 A3016 RMK A01 T00741020  RH  051%=      5-min Rain = 0
KMC5 160519Z 19011KT 07/M02 A3016 RMK A01 T00731020  RH  051%=      5-min Rain = 0
KMC5 160520Z 19011KT 07/M02 A3016 RMK A01 T00731020  RH  052%=      5-min Rain = 0
KMC5 160521Z 19011KT 07/M02 A3016 RMK A01 T00741020  RH  051%=      5-min Rain = 0
KMC5 160522Z 19010KT 07/M02 A3016 RMK A01 T00741020  RH  051%=      5-min Rain = 0
KMC5 160523Z 20011KT 07/M02 A3016 RMK A01 T00741020  RH  051%=      5-min Rain = 0
KMC5 160524Z 20012KT 07/M02 A3016 RMK A01 T00741019  RH  051%=      5-min Rain = 0
KMC5 160525Z 20012KT 08/M02 A3016 RMK A01 T00751019  RH  051%=      5-min Rain = 0
KMC5 160526Z 19011KT 08/M02 A3016 RMK A01 T00751019  RH  051%=      5-min Rain = 0
KMC5 160527Z 20012KT 08/M02 A3016 RMK A01 T00751019  RH  051%=      5-min Rain = 0
KMC5 160528Z 20011KT 08/M02 A3016 RMK A01 T00761020  RH  051%=      5-min Rain = 0
KMC5 160529Z 20011KT 08/M02 A3016 RMK A01 T00751020  RH  051%=      5-min Rain = 0
KMC5 160530Z 20011KT 07/M02 A3016 RMK A01 T00741020  RH  051%=      5-min Rain = 0
KMC5 160531Z 20011KT 07/M02 A3016 RMK A01 T00731020  RH  052%=      5-min Rain = 0
KMC5 160532Z 20011KT 07/M02 A3016 RMK A01 T00721020  RH  052%=      5-min Rain = 0
KMC5 160533Z 20011KT 07/M02 A3016 RMK A01 T00721020  RH  052%=      5-min Rain = 0
KMC5 160534Z 20012KT 07/M02 A3016 RMK A01 T00721020  RH  052%=      5-min Rain = 0
KMC5 160535Z 20012KT 07/M02 A3016 RMK A01 T00721020  RH  052%=      5-min Rain = 0
KMC5 160536Z 20011KT 07/M02 A3016 RMK A01 T00721020  RH  052%=      5-min Rain = 0
KMC5 160537Z 20011KT 07/M02 A3016 RMK A01 T00721020  RH  052%=      5-min Rain = 0
KMC5 160538Z 20011KT 07/M02 A3016 RMK A01 T00711020  RH  052%=      5-min Rain = 0
KMC5 160539Z 20012KT 07/M02 A3016 RMK A01 T00701020  RH  053%=      5-min Rain = 0
KMC5 160540Z 20012KT 07/M02 A3016 RMK A01 T00701020  RH  053%=      5-min Rain = 0
KMC5 160541Z 20013KT 07/M02 A3016 RMK A01 T00701020  RH  053%=      5-min Rain = 0
KMC5 160542Z 20012KT 07/M02 A3016 RMK A01 T00701020  RH  053%=      5-min Rain = 0
KMC5 160543Z 20012KT 07/M02 A3016 RMK A01 T00701020  RH  053%=      5-min Rain = 0
KMC5 160544Z 20012KT 07/M02 A3016 RMK A01 T00701020  RH  053%=      5-min Rain = 0
KMC5 160545Z 20012KT 07/M02 A3016 RMK A01 T00691020  RH  053%=      5-min Rain = 0
KMC5 160546Z 20011KT 07/M02 A3016 RMK A01 T00691019  RH  053%=      5-min Rain = 0
KMC5 160547Z 19011KT 07/M02 A3016 RMK A01 T00691020  RH  053%=      5-min Rain = 0
KMC5 160548Z 20011KT 07/M02 A3016 RMK A01 T00681020  RH  053%=      5-min Rain = 0
KMC5 160549Z 20012KT 07/M02 A3016 RMK A01 T00681020  RH  054%=      5-min Rain = 0
KMC5 160550Z 20012KT 07/M02 A3016 RMK A01 T00691020  RH  053%=      5-min Rain = 0
KMC5 160551Z 20012KT 07/M02 A3016 RMK A01 T00701019  RH  053%=      5-min Rain = 0
KMC5 160552Z 20011KT 07/M02 A3016 RMK A01 T00701019  RH  053%=      5-min Rain = 0
KMC5 160553Z 20012KT 07/M02 A3016 RMK A01 T00701019  RH  053%=      5-min Rain = 0
KMC5 160554Z 20011KT 07/M02 A3016 RMK A01 T00701019  RH  053%=      5-min Rain = 0
KMC5 160555Z 20012KT 07/M02 A3016 RMK A01 T00691020  RH  053%=      5-min Rain = 0
KMC5 160556Z 20010KT 07/M02 A3016 RMK A01 T00681019  RH  054%=      5-min Rain = 0
KMC5 160557Z 20010KT 07/M02 A3016 RMK A01 T00681019  RH  054%=      5-min Rain = 0
KMC5 160558Z 20010KT 07/M02 A3016 RMK A01 T00671020  RH  054%=      5-min Rain = 0
KMC5 160559Z 20011KT 07/M02 A3016 RMK A01 T00661020  RH  054%=      5-min Rain = 0

Page generated in 0.1402 seconds.